SLM6767 SMJP-LTFM

Flight info

Callsign SLM6767
Flight time N/A
Altitude 35000
Route DCT ZY DCT MILUX DCT KONTI CR10 BISUK DCT IRAXI DCT PAKER/M083F350 DCT 23N030W/N0480F360 29N020W DCT KONBA DCT LAPNO/N0471F380 DCT BERUM DCT SADAF DCT CAR DCT LEDRO DCT TURMO DCT ASPIR DCT KATTI/N0476F390 DCT RETRA DCT MAVAR DCT DISOR UL608 FSK UN128 PEREN UM603 ALX UG33 DIGTI UT162 DRAMO DRAMO1A
Aircraft A346/H-SDE2E3FGHIJ3J4J5M1RWXY/LB1D1

Departure

Time 2026-04-17 22:38
Airport Johan Adolf Pengel International Airport (SMJP)

Arrival

Time N/A
Airport İstanbul Airport (LTFM)
Time Latitude Longitude Altitude Speed Heading
2026-04-17 22:25 5.45464 -55.19941 73 ft 0 kts 356°
2026-04-17 22:34 5.45495 -55.19943 70 ft 1 kts 356°
2026-04-17 22:34 5.45498 -55.19944 69 ft 0 kts 345°
2026-04-17 22:34 5.45501 -55.19946 64 ft 1 kts 315°
2026-04-17 22:34 5.45501 -55.19960 63 ft 7 kts 249°
2026-04-17 22:35 5.45444 -55.19977 63 ft 3 kts 225°
2026-04-17 22:35 5.45441 -55.20008 64 ft 5 kts 274°
2026-04-17 22:35 5.45446 -55.20050 73 ft 7 kts 276°
2026-04-17 22:35 5.45451 -55.20103 73 ft 8 kts 276°
2026-04-17 22:36 5.45450 -55.20186 73 ft 17 kts 268°
2026-04-17 22:36 5.45437 -55.20301 65 ft 17 kts 244°
2026-04-17 22:36 5.45342 -55.20332 67 ft 14 kts 158°
2026-04-17 22:36 5.45304 -55.20260 63 ft 12 kts 117°
2026-04-17 22:37 5.45287 -55.20176 65 ft 13 kts 94°
2026-04-17 22:37 5.45286 -55.20054 66 ft 37 kts 90°
2026-04-17 22:37 5.45288 -55.19574 70 ft 99 kts 89°
2026-04-17 22:37 5.45293 -55.18691 71 ft 153 kts 90°
2026-04-17 22:38 5.45308 -55.17480 80 ft 196 kts 88°
2026-04-17 22:38 5.45314 -55.16032 398 ft 211 kts 88°
2026-04-17 22:38 5.45313 -55.14565 1164 ft 206 kts 88°
2026-04-17 22:38 5.45248 -55.13150 2021 ft 199 kts 97°
2026-04-17 22:39 5.44608 -55.11905 2399 ft 215 kts 137°
2026-04-17 22:39 5.43166 -55.11329 2651 ft 237 kts 172°
2026-04-17 22:39 5.40032 -55.12675 3169 ft 274 kts 236°
2026-04-17 22:40 5.39396 -55.14487 3509 ft 280 kts 273°
2026-04-17 22:40 5.39881 -55.16340 4017 ft 275 kts 308°
2026-04-17 22:40 5.41281 -55.17576 4553 ft 268 kts 341°
2026-04-17 22:40 5.43078 -55.17999 5081 ft 266 kts 357°
2026-04-17 22:41 5.44938 -55.18168 5587 ft 270 kts 357°
2026-04-17 22:41 5.46823 -55.18382 6120 ft 274 kts 355°
2026-04-17 22:41 5.48720 -55.18653 6632 ft 276 kts 358°
2026-04-17 22:41 5.50594 -55.18379 7068 ft 275 kts 28°
2026-04-17 22:42 5.52078 -55.17194 7532 ft 274 kts 56°
2026-04-17 22:42 5.52814 -55.15465 7979 ft 276 kts 83°
2026-04-17 22:42 5.52641 -55.13546 8434 ft 281 kts 110°
2026-04-17 22:42 5.51843 -55.11745 8944 ft 282 kts 108°
2026-04-17 22:43 5.51523 -55.09813 9380 ft 283 kts 82°
2026-04-17 22:43 5.52193 -55.07970 9820 ft 284 kts 57°
2026-04-17 22:43 5.53303 -55.06308 10166 ft 291 kts 57°
2026-04-17 22:43 5.54451 -55.04583 10373 ft 303 kts 57°
2026-04-17 22:44 5.55648 -55.02790 10577 ft 315 kts 57°
2026-04-17 22:44 5.56892 -55.00934 10798 ft 326 kts 56°
2026-04-17 22:44 5.58191 -54.99003 11007 ft 338 kts 56°
2026-04-17 22:44 5.59530 -54.97017 11213 ft 350 kts 56°
2026-04-17 22:45 5.60921 -54.94958 11417 ft 361 kts 56°
2026-04-17 22:45 5.62356 -54.92833 11618 ft 372 kts 56°
2026-04-17 22:45 5.63826 -54.90657 11891 ft 380 kts 56°
2026-04-17 22:45 5.65301 -54.88475 12335 ft 383 kts 56°
2026-04-17 22:46 5.66800 -54.86258 12830 ft 385 kts 56°
2026-04-17 22:46 5.68314 -54.84018 13286 ft 387 kts 56°
2026-04-17 22:46 5.69834 -54.81771 13715 ft 390 kts 56°
2026-04-17 22:46 5.71367 -54.79500 14106 ft 393 kts 56°
2026-04-17 22:47 5.72702 -54.77522 14433 ft 395 kts 56°
2026-04-17 22:47 5.74252 -54.75226 14804 ft 398 kts 56°
2026-04-17 22:47 5.75793 -54.72944 15179 ft 400 kts 56°
2026-04-17 22:47 5.77392 -54.70576 15565 ft 403 kts 55°
2026-04-17 22:48 5.78953 -54.68264 15913 ft 406 kts 55°
2026-04-17 22:48 5.80547 -54.65904 16263 ft 409 kts 55°
2026-04-17 22:48 5.82155 -54.63525 16616 ft 412 kts 54°
2026-04-17 22:48 5.83775 -54.61125 16955 ft 415 kts 54°
2026-04-17 22:49 5.85406 -54.58711 17291 ft 418 kts 54°
2026-04-17 22:49 5.87049 -54.56279 17626 ft 421 kts 54°
2026-04-17 22:49 5.88702 -54.53831 17957 ft 424 kts 54°
2026-04-17 22:49 5.90365 -54.51367 18248 ft 426 kts 54°
2026-04-17 22:50 5.92041 -54.48885 18524 ft 429 kts 54°
2026-04-17 22:50 5.93703 -54.46426 18808 ft 431 kts 54°
2026-04-17 22:50 5.95393 -54.43922 19105 ft 433 kts 54°
2026-04-17 22:50 5.97095 -54.41401 19389 ft 436 kts 54°
2026-04-17 22:51 5.98803 -54.38872 19667 ft 438 kts 54°
2026-04-17 22:51 6.00522 -54.36325 19945 ft 441 kts 55°
2026-04-17 22:51 6.02252 -54.33760 20216 ft 443 kts 55°
2026-04-17 22:51 6.03965 -54.31220 20481 ft 446 kts 55°
2026-04-17 22:52 6.05710 -54.28630 20740 ft 449 kts 55°
2026-04-17 22:52 6.07466 -54.26026 21006 ft 451 kts 55°
2026-04-17 22:52 6.09231 -54.23407 21279 ft 453 kts 56°
2026-04-17 22:52 6.11012 -54.20764 21546 ft 456 kts 56°
2026-04-17 22:53 6.12793 -54.18120 21803 ft 458 kts 56°
2026-04-17 22:53 6.14583 -54.15463 22062 ft 460 kts 56°
2026-04-17 22:53 6.16382 -54.12792 22302 ft 462 kts 56°
2026-04-17 22:53 6.18193 -54.10104 22542 ft 465 kts 56°
2026-04-17 22:54 6.20011 -54.07404 22810 ft 466 kts 56°
2026-04-17 22:54 6.21833 -54.04696 23072 ft 468 kts 56°
2026-04-17 22:54 6.23587 -54.01930 23308 ft 470 kts 60°
2026-04-17 22:54 6.25148 -53.99032 23514 ft 472 kts 64°
2026-04-17 22:55 6.26488 -53.96043 23704 ft 473 kts 68°
2026-04-17 22:55 6.27687 -53.92943 23908 ft 475 kts 70°
2026-04-17 22:55 6.28858 -53.89824 24098 ft 477 kts 70°
2026-04-17 22:55 6.30036 -53.86667 24280 ft 479 kts 70°
2026-04-17 22:56 6.31203 -53.83544 24472 ft 480 kts 70°
2026-04-17 22:56 6.32385 -53.80390 24657 ft 482 kts 70°
2026-04-17 22:56 6.33567 -53.77242 24837 ft 484 kts 70°
2026-04-17 22:56 6.34772 -53.74035 25013 ft 486 kts 70°
2026-04-17 22:57 6.35958 -53.70881 25176 ft 488 kts 70°
2026-04-17 22:57 6.37176 -53.67644 25373 ft 489 kts 70°
2026-04-17 22:57 6.38380 -53.64444 25564 ft 491 kts 71°
2026-04-17 22:57 6.39584 -53.61241 25738 ft 493 kts 71°
2026-04-17 22:58 6.40804 -53.57993 25926 ft 494 kts 71°
2026-04-17 22:58 6.42022 -53.54752 26117 ft 495 kts 71°
2026-04-17 22:58 6.43242 -53.51506 26307 ft 497 kts 71°
2026-04-17 22:58 6.44451 -53.48291 26483 ft 498 kts 71°
2026-04-17 22:59 6.45689 -53.44996 26668 ft 500 kts 71°
2026-04-17 22:59 6.46909 -53.41747 26835 ft 501 kts 71°
2026-04-17 22:59 6.48142 -53.38464 27021 ft 502 kts 71°
2026-04-17 22:59 6.49382 -53.35162 27189 ft 504 kts 71°
2026-04-17 23:00 6.50632 -53.31831 27383 ft 505 kts 71°
2026-04-17 23:00 6.51864 -53.28549 27546 ft 506 kts 71°
2026-04-17 23:00 6.53119 -53.25204 27716 ft 508 kts 71°
2026-04-17 23:00 6.54353 -53.21914 27882 ft 509 kts 71°
2026-04-17 23:01 6.55606 -53.18576 28041 ft 510 kts 71°
2026-04-17 23:01 6.56858 -53.15235 28223 ft 511 kts 71°
2026-04-17 23:01 6.58123 -53.11862 28494 ft 510 kts 71°
2026-04-17 23:01 6.59372 -53.08533 28756 ft 509 kts 71°
2026-04-17 23:02 6.60626 -53.05185 28998 ft 508 kts 71°
2026-04-17 23:02 6.61861 -53.01889 29233 ft 508 kts 71°
2026-04-17 23:02 6.63108 -52.98560 29451 ft 508 kts 72°
2026-04-17 23:02 6.64351 -52.95243 29667 ft 507 kts 72°
2026-04-17 23:03 6.65605 -52.91893 29868 ft 507 kts 72°
2026-04-17 23:03 6.66851 -52.88563 30059 ft 507 kts 72°
2026-04-17 23:03 6.68087 -52.85257 30240 ft 507 kts 72°
2026-04-17 23:03 6.69333 -52.81924 30418 ft 506 kts 72°
2026-04-17 23:04 6.70576 -52.78598 30586 ft 506 kts 72°
2026-04-17 23:04 6.71801 -52.75318 30772 ft 506 kts 72°
2026-04-17 23:04 6.73057 -52.71958 30935 ft 506 kts 72°
2026-04-17 23:04 6.74284 -52.68675 31096 ft 506 kts 71°
2026-04-17 23:05 6.75531 -52.65339 31221 ft 507 kts 71°
2026-04-17 23:05 6.76775 -52.62010 31348 ft 508 kts 71°
2026-04-17 23:05 6.78017 -52.58683 31489 ft 509 kts 71°
2026-04-17 23:05 6.79249 -52.55383 31601 ft 509 kts 71°
2026-04-17 23:06 6.80510 -52.52007 31740 ft 510 kts 71°
2026-04-17 23:06 6.81754 -52.48672 31860 ft 511 kts 71°
2026-04-17 23:06 6.83013 -52.45300 31983 ft 512 kts 71°
2026-04-17 23:06 6.84269 -52.41933 32108 ft 513 kts 71°
2026-04-17 23:07 6.85525 -52.38566 32218 ft 514 kts 71°
2026-04-17 23:07 6.86774 -52.35219 32316 ft 515 kts 71°
2026-04-17 23:07 6.88030 -52.31850 32449 ft 515 kts 71°
2026-04-17 23:07 6.89297 -52.28449 32563 ft 516 kts 71°
2026-04-17 23:08 6.90562 -52.25054 32682 ft 517 kts 71°
2026-04-17 23:08 6.91818 -52.21684 32793 ft 518 kts 71°
2026-04-17 23:08 6.94356 -52.14871 32869 ft 519 kts 71°
2026-04-17 23:09 6.96901 -52.08034 32871 ft 519 kts 71°
2026-04-17 23:09 6.99426 -52.01246 32868 ft 519 kts 71°
2026-04-17 23:10 7.01969 -51.94406 32872 ft 519 kts 71°
2026-04-17 23:10 7.04494 -51.87613 32874 ft 519 kts 71°
2026-04-17 23:11 7.07021 -51.80811 32873 ft 519 kts 71°
2026-04-17 23:11 7.09555 -51.73986 32875 ft 519 kts 71°
2026-04-17 23:12 7.12078 -51.67188 32876 ft 519 kts 71°
2026-04-17 23:12 7.14609 -51.60366 32873 ft 519 kts 71°
2026-04-17 23:13 7.17140 -51.53539 32876 ft 519 kts 71°
2026-04-17 23:13 7.19661 -51.46736 32870 ft 518 kts 71°
2026-04-17 23:14 7.22176 -51.39944 32873 ft 518 kts 71°
2026-04-17 23:14 7.24710 -51.33101 32881 ft 518 kts 71°
2026-04-17 23:15 7.27225 -51.26301 32878 ft 518 kts 71°
2026-04-17 23:15 7.29744 -51.19490 32879 ft 518 kts 71°
2026-04-17 23:16 7.32252 -51.12704 32877 ft 518 kts 71°
2026-04-17 23:16 7.34774 -51.05878 32874 ft 518 kts 71°
2026-04-17 23:17 7.37283 -50.99081 32883 ft 518 kts 71°
2026-04-17 23:17 7.39804 -50.92251 32882 ft 518 kts 71°
2026-04-17 23:18 7.42303 -50.85474 32884 ft 518 kts 71°
2026-04-17 23:18 7.44819 -50.78650 32880 ft 518 kts 71°
2026-04-17 23:19 7.46916 -50.72960 32884 ft 518 kts 71°
2026-04-17 23:19 7.49831 -50.65043 32884 ft 518 kts 71°
2026-04-17 23:20 7.51933 -50.59333 32885 ft 518 kts 71°
2026-04-17 23:20 7.54435 -50.52531 32883 ft 518 kts 71°
2026-04-17 23:21 7.56949 -50.45696 32882 ft 518 kts 71°
2026-04-17 23:21 7.59455 -50.38877 32889 ft 518 kts 72°
2026-04-17 23:22 7.61962 -50.32050 32888 ft 518 kts 72°
2026-04-17 23:22 7.64455 -50.25259 32885 ft 518 kts 72°
2026-04-17 23:23 7.66966 -50.18415 32887 ft 518 kts 72°
2026-04-17 23:23 7.69463 -50.11606 32889 ft 519 kts 72°
2026-04-17 23:24 7.71968 -50.04773 32890 ft 519 kts 72°
2026-04-17 23:24 7.74467 -49.97951 32891 ft 519 kts 72°
2026-04-17 23:25 7.76992 -49.91116 32889 ft 519 kts 70°
2026-04-17 23:25 7.80002 -49.84498 32889 ft 521 kts 64°
2026-04-17 23:26 7.83752 -49.78189 32891 ft 523 kts 57°
2026-04-17 23:26 7.88159 -49.72332 32897 ft 524 kts 51°
2026-04-17 23:27 7.92811 -49.66695 32893 ft 524 kts 51°
2026-04-17 23:27 7.97464 -49.61064 32895 ft 524 kts 51°
2026-04-17 23:28 8.02124 -49.55402 32897 ft 524 kts 51°
2026-04-17 23:28 8.06791 -49.49721 32894 ft 524 kts 51°
2026-04-17 23:29 8.11455 -49.44039 32893 ft 524 kts 51°
2026-04-17 23:29 8.16090 -49.38388 32898 ft 524 kts 51°
2026-04-17 23:30 8.20732 -49.32727 32897 ft 524 kts 51°
2026-04-17 23:30 8.25402 -49.27029 32902 ft 524 kts 51°
2026-04-17 23:31 8.30023 -49.21389 32900 ft 524 kts 51°
2026-04-17 23:31 8.34669 -49.15716 32906 ft 524 kts 51°
2026-04-17 23:32 8.39333 -49.10018 32903 ft 524 kts 51°
2026-04-17 23:32 8.43962 -49.04361 32912 ft 525 kts 51°
2026-04-17 23:33 8.48615 -48.98673 32909 ft 525 kts 51°
2026-04-17 23:33 8.53285 -48.92962 32913 ft 525 kts 51°
2026-04-17 23:34 8.57933 -48.87275 32913 ft 526 kts 51°
2026-04-17 23:34 8.62580 -48.81587 32915 ft 526 kts 51°
2026-04-17 23:35 8.67237 -48.75885 32924 ft 526 kts 51°
2026-04-17 23:35 8.71919 -48.70149 32905 ft 526 kts 51°
2026-04-17 23:36 8.76580 -48.64437 32921 ft 526 kts 51°
2026-04-17 23:36 8.81219 -48.58748 32924 ft 526 kts 51°
2026-04-17 23:37 8.85861 -48.53054 32908 ft 526 kts 51°
2026-04-17 23:37 8.90532 -48.47321 32923 ft 526 kts 51°
2026-04-17 23:38 8.95177 -48.41618 32923 ft 526 kts 51°
2026-04-17 23:38 8.99801 -48.35938 32914 ft 526 kts 51°
2026-04-17 23:39 9.04485 -48.30183 32926 ft 526 kts 51°
2026-04-17 23:39 9.09103 -48.24505 32929 ft 525 kts 51°
2026-04-17 23:40 9.13749 -48.18789 32911 ft 525 kts 51°
2026-04-17 23:40 9.18409 -48.13056 32930 ft 525 kts 51°
2026-04-17 23:41 9.23070 -48.07317 32932 ft 525 kts 51°
2026-04-17 23:41 9.27704 -48.01610 32915 ft 525 kts 51°
2026-04-17 23:42 9.32323 -47.95918 32933 ft 525 kts 51°
2026-04-17 23:42 9.36995 -47.90158 32937 ft 526 kts 51°
2026-04-17 23:43 9.41621 -47.84452 32923 ft 525 kts 51°
2026-04-17 23:43 9.46244 -47.78748 32937 ft 525 kts 51°
2026-04-17 23:44 9.50888 -47.73015 32942 ft 525 kts 51°
2026-04-17 23:44 9.55521 -47.67292 32928 ft 525 kts 51°
2026-04-17 23:45 9.62490 -47.58679 32941 ft 525 kts 51°
2026-04-17 23:46 9.67095 -47.52985 32927 ft 525 kts 51°
2026-04-17 23:46 9.71741 -47.47238 32945 ft 525 kts 51°
2026-04-17 23:47 9.76374 -47.41503 32943 ft 525 kts 51°
2026-04-17 23:47 9.81013 -47.35757 32930 ft 525 kts 51°
2026-04-17 23:48 9.85626 -47.30042 32949 ft 525 kts 51°
2026-04-17 23:48 9.90276 -47.24279 32952 ft 526 kts 51°
2026-04-17 23:49 9.94917 -47.18523 32937 ft 526 kts 51°
2026-04-17 23:49 9.99534 -47.12794 32942 ft 526 kts 51°
2026-04-17 23:50 10.04153 -47.07059 32958 ft 526 kts 51°
2026-04-17 23:50 10.08795 -47.01294 32943 ft 526 kts 51°
2026-04-17 23:51 10.13433 -46.95531 32942 ft 526 kts 51°
2026-04-17 23:51 10.18065 -46.89772 32963 ft 526 kts 51°
2026-04-17 23:52 10.22682 -46.84029 32946 ft 526 kts 51°
2026-04-17 23:52 10.27311 -46.78268 32948 ft 526 kts 51°
2026-04-17 23:53 10.31956 -46.72485 32949 ft 526 kts 51°
2026-04-17 23:53 10.36586 -46.66718 32950 ft 527 kts 51°
2026-04-17 23:54 10.41218 -46.60945 32950 ft 527 kts 51°
2026-04-17 23:54 10.46011 -46.55275 32950 ft 527 kts 46°
2026-04-17 23:55 10.51337 -46.50186 32954 ft 528 kts 39°
2026-04-17 23:55 10.57263 -46.45715 32954 ft 527 kts 32°
2026-04-17 23:56 10.63511 -46.41895 32956 ft 526 kts 29°
2026-04-17 23:56 10.69840 -46.38165 32959 ft 527 kts 29°
2026-04-17 23:57 10.76194 -46.34405 32960 ft 527 kts 29°
2026-04-17 23:57 10.82496 -46.30660 32965 ft 527 kts 29°
2026-04-17 23:58 10.88845 -46.26880 32968 ft 527 kts 29°
2026-04-17 23:58 10.95191 -46.23100 32965 ft 527 kts 29°
2026-04-17 23:59 11.01531 -46.19320 32967 ft 527 kts 29°
2026-04-17 23:59 11.07824 -46.15566 32965 ft 528 kts 29°
2026-04-18 00:00 11.14167 -46.11781 32968 ft 528 kts 29°
2026-04-18 00:00 11.20538 -46.07978 32968 ft 528 kts 29°
2026-04-18 00:01 11.26850 -46.04209 32969 ft 528 kts 29°
2026-04-18 00:01 11.33182 -46.00426 32972 ft 528 kts 29°
2026-04-18 00:02 11.39527 -45.96632 32977 ft 529 kts 29°
2026-04-18 00:02 11.45914 -45.92811 32977 ft 529 kts 29°
2026-04-18 00:03 11.52250 -45.89019 32979 ft 529 kts 29°
2026-04-18 00:03 11.58591 -45.85222 32982 ft 530 kts 29°
2026-04-18 00:04 11.64940 -45.81418 32977 ft 530 kts 29°
2026-04-18 00:04 11.71328 -45.77589 32978 ft 530 kts 29°
2026-04-18 00:05 11.77660 -45.73790 32981 ft 530 kts 29°
2026-04-18 00:05 11.83987 -45.69993 32983 ft 529 kts 29°
2026-04-18 00:06 11.90358 -45.66168 32979 ft 530 kts 29°
2026-04-18 00:06 11.96696 -45.62360 32980 ft 530 kts 29°
2026-04-18 00:07 12.03065 -45.58532 32983 ft 529 kts 29°
2026-04-18 00:07 12.08358 -45.55348 32985 ft 529 kts 29°
2026-04-18 00:08 12.14698 -45.51533 32982 ft 529 kts 29°
2026-04-18 00:08 12.22085 -45.47086 32983 ft 530 kts 29°
2026-04-18 00:09 12.27412 -45.43876 32982 ft 530 kts 29°
2026-04-18 00:09 12.33742 -45.40061 32988 ft 530 kts 29°
2026-04-18 00:10 12.40069 -45.36245 32988 ft 530 kts 29°
2026-04-18 00:10 12.46438 -45.32402 32986 ft 530 kts 29°
2026-04-18 00:11 12.52813 -45.28553 32997 ft 530 kts 29°
2026-04-18 00:11 12.59163 -45.24717 32991 ft 530 kts 29°
2026-04-18 00:12 12.65511 -45.20880 32991 ft 530 kts 29°
2026-04-18 00:12 12.71838 -45.17054 32992 ft 531 kts 29°
2026-04-18 00:13 12.78229 -45.13186 32995 ft 531 kts 29°
2026-04-18 00:13 12.84591 -45.09335 32996 ft 531 kts 29°
2026-04-18 00:14 12.90926 -45.05476 32994 ft 531 kts 31°
2026-04-18 00:14 12.96774 -45.00882 32993 ft 533 kts 42°
2026-04-18 00:15 13.01736 -44.95173 32997 ft 534 kts 54°
2026-04-18 00:15 13.05538 -44.88677 33000 ft 533 kts 64°
2026-04-18 00:16 13.08805 -44.81821 33001 ft 534 kts 65°
2026-04-18 00:16 13.12044 -44.74968 33000 ft 535 kts 65°
2026-04-18 00:17 13.15306 -44.68128 32998 ft 535 kts 64°
2026-04-18 00:17 13.18600 -44.61246 32999 ft 535 kts 64°
2026-04-18 00:18 13.21882 -44.54395 33003 ft 535 kts 64°
2026-04-18 00:18 13.25172 -44.47521 33002 ft 536 kts 64°
2026-04-18 00:19 13.28453 -44.40662 33001 ft 536 kts 64°
2026-04-18 00:19 13.31737 -44.33792 33001 ft 536 kts 64°
2026-04-18 00:20 13.35030 -44.26895 33005 ft 536 kts 64°
2026-04-18 00:20 13.38308 -44.20026 33004 ft 536 kts 64°
2026-04-18 00:21 13.41588 -44.13145 33004 ft 536 kts 64°
2026-04-18 00:21 13.44877 -44.06240 33002 ft 536 kts 64°
2026-04-18 00:22 13.48149 -43.99366 33004 ft 536 kts 64°
2026-04-18 00:22 13.51434 -43.92457 33005 ft 537 kts 64°
2026-04-18 00:23 13.54703 -43.85578 33009 ft 537 kts 64°
2026-04-18 00:23 13.57991 -43.78652 33007 ft 537 kts 64°
2026-04-18 00:24 13.61256 -43.71769 33008 ft 537 kts 64°
2026-04-18 00:24 13.64546 -43.64825 33010 ft 537 kts 64°
2026-04-18 00:25 13.67807 -43.57939 33007 ft 537 kts 64°
2026-04-18 00:25 13.71086 -43.51006 33010 ft 537 kts 64°
2026-04-18 00:26 13.74339 -43.44123 33007 ft 537 kts 64°
2026-04-18 00:26 13.77612 -43.37192 33009 ft 537 kts 64°
2026-04-18 00:27 13.80866 -43.30295 33006 ft 537 kts 64°
2026-04-18 00:27 13.84134 -43.23364 33007 ft 537 kts 64°
2026-04-18 00:28 13.87406 -43.16418 33008 ft 537 kts 64°
2026-04-18 00:28 13.90672 -43.09479 33009 ft 537 kts 64°
2026-04-18 00:29 13.93915 -43.02583 33011 ft 537 kts 64°
2026-04-18 00:29 13.97172 -42.95649 33011 ft 538 kts 64°
2026-04-18 00:30 14.00421 -42.88730 33007 ft 538 kts 64°
2026-04-18 00:30 14.03682 -42.81776 33009 ft 538 kts 64°
2026-04-18 00:31 14.06941 -42.74821 33008 ft 538 kts 64°
2026-04-18 00:31 14.10195 -42.67869 33009 ft 538 kts 64°
2026-04-18 00:32 14.13451 -42.60909 33012 ft 538 kts 64°
2026-04-18 00:32 14.16689 -42.53979 33017 ft 538 kts 64°
2026-04-18 00:33 14.19942 -42.47011 33012 ft 538 kts 64°
2026-04-18 00:33 14.23191 -42.40044 33013 ft 539 kts 64°
2026-04-18 00:34 14.26438 -42.33078 33013 ft 539 kts 64°
2026-04-18 00:34 14.29697 -42.26078 33013 ft 539 kts 64°
2026-04-18 00:35 14.32937 -42.19112 33013 ft 540 kts 64°
2026-04-18 00:35 14.36184 -42.12125 33012 ft 540 kts 64°
2026-04-18 00:36 14.39419 -42.05158 33012 ft 540 kts 64°
2026-04-18 00:36 14.42668 -41.98154 33013 ft 541 kts 64°
2026-04-18 00:37 14.45931 -41.91114 33014 ft 541 kts 64°
2026-04-18 00:37 14.49174 -41.84109 33017 ft 542 kts 64°
2026-04-18 00:38 14.52423 -41.77085 33014 ft 542 kts 64°
2026-04-18 00:38 14.55673 -41.70052 33012 ft 543 kts 64°
2026-04-18 00:39 14.58917 -41.63027 33014 ft 543 kts 64°
2026-04-18 00:39 14.62179 -41.55955 33014 ft 544 kts 64°
2026-04-18 00:40 14.65426 -41.48908 33017 ft 544 kts 64°
2026-04-18 00:40 14.68670 -41.41863 33015 ft 544 kts 64°
2026-04-18 00:41 14.71940 -41.34753 33017 ft 545 kts 64°
2026-04-18 00:41 14.75201 -41.27658 33013 ft 546 kts 63°
2026-04-18 00:42 14.78452 -41.20575 33009 ft 546 kts 63°
2026-04-18 00:42 14.81700 -41.13494 33020 ft 547 kts 63°
2026-04-18 00:43 14.84970 -41.06357 33013 ft 547 kts 63°
2026-04-18 00:43 14.88220 -40.99254 33014 ft 548 kts 63°
2026-04-18 00:44 14.91490 -40.92104 33014 ft 548 kts 63°
2026-04-18 00:44 14.94750 -40.84967 33016 ft 549 kts 63°
2026-04-18 00:45 14.98012 -40.77819 33017 ft 549 kts 63°
2026-04-18 00:45 15.01268 -40.70678 33020 ft 549 kts 63°
2026-04-18 00:46 15.04544 -40.63488 33021 ft 549 kts 63°
2026-04-18 00:46 15.07806 -40.56320 33022 ft 550 kts 63°
2026-04-18 00:47 15.11064 -40.49153 33017 ft 550 kts 63°
2026-04-18 00:47 15.14336 -40.41950 33008 ft 550 kts 63°
2026-04-18 00:48 15.17575 -40.34809 33015 ft 550 kts 63°
2026-04-18 00:48 15.20832 -40.27623 33023 ft 550 kts 63°
2026-04-18 00:49 15.25699 -40.16874 33018 ft 550 kts 63°
2026-04-18 00:49 15.28951 -40.09681 33014 ft 550 kts 63°
2026-04-18 00:50 15.32430 -40.02656 33017 ft 548 kts 57°
2026-04-18 00:50 15.36643 -39.96079 33026 ft 544 kts 49°
2026-04-18 00:51 15.41436 -39.90061 33020 ft 542 kts 45°
2026-04-18 00:51 15.46357 -39.84158 33014 ft 541 kts 45°
2026-04-18 00:52 15.51294 -39.78211 33025 ft 541 kts 45°
2026-04-18 00:52 15.56170 -39.72311 33015 ft 541 kts 45°
2026-04-18 00:53 15.61062 -39.66375 33019 ft 541 kts 45°
2026-04-18 00:53 15.65968 -39.60416 33014 ft 541 kts 45°
2026-04-18 00:54 15.70834 -39.54499 33013 ft 541 kts 45°
2026-04-18 00:54 15.75727 -39.48546 33020 ft 541 kts 45°
2026-04-18 00:55 15.80641 -39.42562 33019 ft 541 kts 45°
2026-04-18 00:55 15.85529 -39.36605 33026 ft 541 kts 45°
2026-04-18 00:56 15.90416 -39.30644 33026 ft 541 kts 45°
2026-04-18 00:56 15.94460 -39.25708 33030 ft 541 kts 45°
2026-04-18 00:57 16.00170 -39.18734 33029 ft 541 kts 45°
2026-04-18 00:57 16.04224 -39.13777 33026 ft 541 kts 45°
2026-04-18 00:58 16.09137 -39.07766 33030 ft 541 kts 45°
2026-04-18 00:58 16.13998 -39.01813 33029 ft 541 kts 45°
2026-04-18 00:59 16.18877 -38.95832 33031 ft 541 kts 45°
2026-04-18 00:59 16.23725 -38.89884 33032 ft 541 kts 45°
2026-04-18 01:00 16.28611 -38.83887 33034 ft 540 kts 45°
2026-04-18 01:00 16.33448 -38.77944 33032 ft 540 kts 45°
2026-04-18 01:01 16.38300 -38.71978 33036 ft 540 kts 45°
2026-04-18 01:01 16.43149 -38.66009 33030 ft 539 kts 45°
2026-04-18 01:02 16.48019 -38.60011 33032 ft 539 kts 45°
2026-04-18 01:02 16.52849 -38.54057 33030 ft 540 kts 45°
2026-04-18 01:03 16.57723 -38.48043 33034 ft 541 kts 45°
2026-04-18 01:03 16.62576 -38.42050 33036 ft 541 kts 45°
2026-04-18 01:04 16.67421 -38.36062 33034 ft 542 kts 45°
2026-04-18 01:04 16.72285 -38.30044 33035 ft 542 kts 45°
2026-04-18 01:05 16.77146 -38.24025 33036 ft 543 kts 45°
2026-04-18 01:05 16.82026 -38.17978 33036 ft 544 kts 45°
2026-04-18 01:06 16.86899 -38.11933 33035 ft 544 kts 45°
2026-04-18 01:06 16.91774 -38.05880 33036 ft 545 kts 45°
2026-04-18 01:07 16.96651 -37.99817 33037 ft 545 kts 45°
2026-04-18 01:07 17.01550 -37.93725 33036 ft 545 kts 45°
2026-04-18 01:08 17.06429 -37.87652 33042 ft 545 kts 44°
2026-04-18 01:08 17.11312 -37.81567 33037 ft 545 kts 44°
2026-04-18 01:09 17.16163 -37.75520 33038 ft 546 kts 44°
2026-04-18 01:09 17.21045 -37.69427 33035 ft 546 kts 44°
2026-04-18 01:10 17.25947 -37.63302 33037 ft 547 kts 44°
2026-04-18 01:10 17.30839 -37.57187 33040 ft 547 kts 44°
2026-04-18 01:11 17.35720 -37.51078 33040 ft 548 kts 44°
2026-04-18 01:11 17.40589 -37.44980 33040 ft 548 kts 44°
2026-04-18 01:12 17.45487 -37.38838 33042 ft 549 kts 44°
2026-04-18 01:12 17.50408 -37.32661 33039 ft 549 kts 44°
2026-04-18 01:13 17.55275 -37.26548 33040 ft 549 kts 44°
2026-04-18 01:13 17.60174 -37.20388 33038 ft 550 kts 44°
2026-04-18 01:14 17.65062 -37.14236 33039 ft 550 kts 44°
2026-04-18 01:14 17.69975 -37.08047 33037 ft 550 kts 44°
2026-04-18 01:15 17.74868 -37.01879 33039 ft 550 kts 44°
2026-04-18 01:15 17.79755 -36.95712 33041 ft 550 kts 44°
2026-04-18 01:16 17.84665 -36.89509 33037 ft 550 kts 44°
2026-04-18 01:16 17.89545 -36.83337 33038 ft 550 kts 44°
2026-04-18 01:17 17.94460 -36.77118 33045 ft 550 kts 44°
2026-04-18 01:17 17.99332 -36.70945 33048 ft 550 kts 44°
2026-04-18 01:18 18.04201 -36.64771 33043 ft 550 kts 44°
2026-04-18 01:18 18.09099 -36.58554 33045 ft 550 kts 44°
2026-04-18 01:19 18.13983 -36.52348 33045 ft 549 kts 44°
2026-04-18 01:19 18.18824 -36.46193 33050 ft 550 kts 44°
2026-04-18 01:20 18.23699 -36.39988 33044 ft 550 kts 44°
2026-04-18 01:20 18.28598 -36.33746 33047 ft 550 kts 44°
2026-04-18 01:21 18.33461 -36.27543 33046 ft 551 kts 44°
2026-04-18 01:21 18.38360 -36.21288 33047 ft 551 kts 44°
2026-04-18 01:22 18.43221 -36.15076 33047 ft 552 kts 44°
2026-04-18 01:22 18.48117 -36.08813 33045 ft 552 kts 44°
2026-04-18 01:23 18.52990 -36.02573 33039 ft 553 kts 44°
2026-04-18 01:23 18.57862 -35.96327 33041 ft 553 kts 44°
2026-04-18 01:24 18.62764 -35.90040 33044 ft 554 kts 44°
2026-04-18 01:24 18.67654 -35.83760 33049 ft 554 kts 44°
2026-04-18 01:25 18.72548 -35.77468 33047 ft 555 kts 44°
2026-04-18 01:25 18.77470 -35.71134 33049 ft 555 kts 44°
2026-04-18 01:26 18.82348 -35.64850 33043 ft 556 kts 44°
2026-04-18 01:26 18.87255 -35.58522 33049 ft 556 kts 44°
2026-04-18 01:27 18.92183 -35.52161 33045 ft 556 kts 43°
2026-04-18 01:27 18.97083 -35.45829 33047 ft 556 kts 43°
2026-04-18 01:28 19.01970 -35.39506 33049 ft 556 kts 43°
2026-04-18 01:28 19.06870 -35.33162 33048 ft 556 kts 43°
2026-04-18 01:29 19.11768 -35.26814 33053 ft 556 kts 43°
2026-04-18 01:29 19.16671 -35.20452 33050 ft 556 kts 43°
2026-04-18 01:30 19.21532 -35.14137 33055 ft 556 kts 43°
2026-04-18 01:30 19.26411 -35.07795 33056 ft 555 kts 43°
2026-04-18 01:31 19.31290 -35.01444 33053 ft 555 kts 43°
2026-04-18 01:31 19.36187 -34.95064 33053 ft 555 kts 43°
2026-04-18 01:32 19.41030 -34.88748 33060 ft 554 kts 42°
2026-04-18 01:32 19.45881 -34.82413 33047 ft 554 kts 42°
2026-04-18 01:33 19.50741 -34.76064 33054 ft 554 kts 42°
2026-04-18 01:33 19.55595 -34.69713 33051 ft 554 kts 42°
2026-04-18 01:34 19.60452 -34.63352 33052 ft 554 kts 42°
2026-04-18 01:34 19.65316 -34.56975 33058 ft 554 kts 42°
2026-04-18 01:35 19.70140 -34.50643 33057 ft 554 kts 42°
2026-04-18 01:35 19.75015 -34.44238 33057 ft 554 kts 42°
2026-04-18 01:36 19.79847 -34.37881 33057 ft 554 kts 42°
2026-04-18 01:36 19.84701 -34.31490 33056 ft 554 kts 42°
2026-04-18 01:37 19.89527 -34.25129 33057 ft 554 kts 42°
2026-04-18 01:37 19.94376 -34.18730 33060 ft 554 kts 42°
2026-04-18 01:38 19.99206 -34.12348 33058 ft 554 kts 42°
2026-04-18 01:38 20.04017 -34.05986 33056 ft 554 kts 42°
2026-04-18 01:39 20.08854 -33.99583 33058 ft 554 kts 42°
2026-04-18 01:39 20.13702 -33.93157 33057 ft 554 kts 42°
2026-04-18 01:40 20.18510 -33.86777 33056 ft 554 kts 42°
2026-04-18 01:40 20.23344 -33.80355 33059 ft 554 kts 42°
2026-04-18 01:41 20.28170 -33.73939 33059 ft 554 kts 42°
2026-04-18 01:41 20.32965 -33.67554 33058 ft 554 kts 42°
2026-04-18 01:42 20.37782 -33.61136 33058 ft 554 kts 42°
2026-04-18 01:42 20.42621 -33.54680 33060 ft 555 kts 42°
2026-04-18 01:43 20.47430 -33.48257 33057 ft 555 kts 42°
2026-04-18 01:43 20.52250 -33.41812 33059 ft 555 kts 42°
2026-04-18 01:44 20.56268 -33.36433 33058 ft 555 kts 42°
2026-04-18 01:44 20.61070 -33.29999 33060 ft 555 kts 42°
2026-04-18 01:45 20.65885 -33.23540 33060 ft 555 kts 42°
2026-04-18 01:45 20.70671 -33.17113 33043 ft 555 kts 42°
2026-04-18 01:46 20.75484 -33.10640 33053 ft 555 kts 42°
2026-04-18 01:46 20.80296 -33.04163 33062 ft 555 kts 42°
2026-04-18 01:47 20.85105 -32.97683 33066 ft 555 kts 43°
2026-04-18 01:47 20.89890 -32.91228 33062 ft 555 kts 43°
2026-04-18 01:48 20.94688 -32.84747 33062 ft 555 kts 43°
2026-04-18 01:48 20.99457 -32.78299 33059 ft 555 kts 43°
2026-04-18 01:49 21.04279 -32.71770 33061 ft 555 kts 43°
2026-04-18 01:49 21.09063 -32.65286 33062 ft 555 kts 43°
2026-04-18 01:50 21.13838 -32.58808 33063 ft 555 kts 43°
2026-04-18 01:50 21.18615 -32.52317 33065 ft 555 kts 43°
2026-04-18 01:51 21.23421 -32.45781 33063 ft 555 kts 43°
2026-04-18 01:51 21.28200 -32.39274 33063 ft 555 kts 43°
2026-04-18 01:52 21.32954 -32.32793 33060 ft 555 kts 43°
2026-04-18 01:52 21.37754 -32.26241 33062 ft 554 kts 43°
2026-04-18 01:53 21.42493 -32.19766 33063 ft 554 kts 44°
2026-04-18 01:54 21.49646 -32.09977 33064 ft 552 kts 44°
2026-04-18 01:54 21.54375 -32.03495 33060 ft 551 kts 44°
2026-04-18 01:55 21.59081 -31.97037 33065 ft 550 kts 44°
2026-04-18 01:55 21.63802 -31.90550 33066 ft 549 kts 44°
2026-04-18 01:56 21.68508 -31.84077 33060 ft 548 kts 44°
2026-04-18 01:56 21.73181 -31.77644 33060 ft 547 kts 44°
2026-04-18 01:57 21.77886 -31.71157 33061 ft 546 kts 44°
2026-04-18 01:57 21.82553 -31.64714 33065 ft 546 kts 45°
2026-04-18 01:58 21.87228 -31.58254 33059 ft 545 kts 45°
2026-04-18 01:58 21.91863 -31.51842 33061 ft 544 kts 45°
2026-04-18 01:59 21.96495 -31.45424 33060 ft 543 kts 45°
2026-04-18 01:59 22.01133 -31.38992 33060 ft 543 kts 45°
2026-04-18 02:00 22.05766 -31.32558 33059 ft 542 kts 45°
2026-04-18 02:00 22.10380 -31.26143 33058 ft 541 kts 45°
2026-04-18 02:01 22.14985 -31.19736 33057 ft 541 kts 45°
2026-04-18 02:01 22.19622 -31.13274 33058 ft 540 kts 45°
2026-04-18 02:02 22.24196 -31.06891 33062 ft 539 kts 46°
2026-04-18 02:02 22.28792 -31.00470 33058 ft 538 kts 46°
2026-04-18 02:03 22.33365 -30.94073 33058 ft 537 kts 46°
2026-04-18 02:03 22.37917 -30.87699 33067 ft 537 kts 46°
2026-04-18 02:04 22.42464 -30.81326 33058 ft 536 kts 46°
2026-04-18 02:04 22.47017 -30.74934 33056 ft 536 kts 46°
2026-04-18 02:05 22.51580 -30.68521 33057 ft 536 kts 46°
2026-04-18 02:05 22.56139 -30.62106 33061 ft 535 kts 46°
2026-04-18 02:06 22.60665 -30.55730 33062 ft 535 kts 46°
2026-04-18 02:06 22.65186 -30.49353 33047 ft 534 kts 46°
2026-04-18 02:07 22.69703 -30.42973 33052 ft 533 kts 46°
2026-04-18 02:07 22.74218 -30.36589 33060 ft 533 kts 47°
2026-04-18 02:08 22.78729 -30.30202 33057 ft 533 kts 47°
2026-04-18 02:08 22.83225 -30.23830 33065 ft 532 kts 47°
2026-04-18 02:09 22.87715 -30.17459 33062 ft 531 kts 47°
2026-04-18 02:09 22.92196 -30.11091 33058 ft 530 kts 47°
2026-04-18 02:10 22.96696 -30.04689 33054 ft 529 kts 47°
2026-04-18 02:10 23.01131 -29.98341 33057 ft 529 kts 48°
2026-04-18 02:11 23.05446 -29.91859 33057 ft 530 kts 49°
2026-04-18 02:11 23.09720 -29.85376 33053 ft 529 kts 49°
2026-04-18 02:12 23.14040 -29.78836 33054 ft 528 kts 49°
2026-04-18 02:12 23.18306 -29.72384 33049 ft 528 kts 49°
2026-04-18 02:13 23.22587 -29.65907 33055 ft 527 kts 49°
2026-04-18 02:13 23.26882 -29.59400 33059 ft 527 kts 49°
2026-04-18 02:14 23.31138 -29.52947 33058 ft 527 kts 49°
2026-04-18 02:14 23.35420 -29.46444 33060 ft 526 kts 49°
2026-04-18 02:15 23.39676 -29.39973 33055 ft 526 kts 50°
2026-04-18 02:15 23.43930 -29.33496 33054 ft 526 kts 50°
2026-04-18 02:16 23.48192 -29.27001 33052 ft 525 kts 50°
2026-04-18 02:16 23.52443 -29.20512 33052 ft 525 kts 50°
2026-04-18 02:17 23.56668 -29.14055 33051 ft 524 kts 50°
2026-04-18 02:17 23.60897 -29.07585 33053 ft 524 kts 50°
2026-04-18 02:18 23.65137 -29.01088 33053 ft 523 kts 50°
2026-04-18 02:18 23.69342 -28.94637 33055 ft 523 kts 50°
2026-04-18 02:19 23.73578 -28.88130 33034 ft 523 kts 50°
2026-04-18 02:19 23.77773 -28.81677 33044 ft 523 kts 50°
2026-04-18 02:20 23.81994 -28.75177 33046 ft 522 kts 50°
2026-04-18 02:20 23.86194 -28.68700 33046 ft 522 kts 50°
2026-04-18 02:21 23.90371 -28.62252 33057 ft 522 kts 50°
2026-04-18 02:21 23.94562 -28.55772 33050 ft 521 kts 50°
2026-04-18 02:22 23.98761 -28.49273 33048 ft 520 kts 50°
2026-04-18 02:22 24.02913 -28.42837 33049 ft 520 kts 50°
2026-04-18 02:23 24.07089 -28.36354 33045 ft 520 kts 50°
2026-04-18 02:23 24.11250 -28.29889 33046 ft 519 kts 51°
2026-04-18 02:24 24.15404 -28.23425 33047 ft 519 kts 51°
2026-04-18 02:24 24.19553 -28.16961 33045 ft 519 kts 51°
2026-04-18 02:25 24.23706 -28.10480 33045 ft 518 kts 51°
2026-04-18 02:25 24.27856 -28.03998 33048 ft 518 kts 51°
2026-04-18 02:26 24.31990 -27.97531 33045 ft 517 kts 51°
2026-04-18 02:26 24.36131 -27.91045 33042 ft 517 kts 51°
2026-04-18 02:27 24.40246 -27.84591 33044 ft 517 kts 51°
2026-04-18 02:27 24.44368 -27.78118 33041 ft 517 kts 51°
2026-04-18 02:28 24.48495 -27.71628 33039 ft 516 kts 51°
2026-04-18 02:28 24.52589 -27.65182 33039 ft 516 kts 51°
2026-04-18 02:29 24.56691 -27.58714 33040 ft 516 kts 51°
2026-04-18 02:29 24.60784 -27.52252 33038 ft 515 kts 52°
2026-04-18 02:30 24.64896 -27.45750 33035 ft 515 kts 52°
2026-04-18 02:30 24.68976 -27.39291 33039 ft 515 kts 52°
2026-04-18 02:31 24.73061 -27.32817 33035 ft 514 kts 52°
2026-04-18 02:31 24.77135 -27.26350 33036 ft 514 kts 52°
2026-04-18 02:32 24.81223 -27.19853 33030 ft 514 kts 52°
2026-04-18 02:32 24.85271 -27.13410 33029 ft 514 kts 52°
2026-04-18 02:33 24.88688 -27.07966 33037 ft 514 kts 52°
2026-04-18 02:33 24.92751 -27.01484 33031 ft 514 kts 52°
2026-04-18 02:34 24.96804 -26.95009 33033 ft 514 kts 52°
2026-04-18 02:34 25.00855 -26.88527 33032 ft 514 kts 52°
2026-04-18 02:35 25.04910 -26.82031 33027 ft 514 kts 52°
2026-04-18 02:35 25.08985 -26.75495 33035 ft 514 kts 53°
2026-04-18 02:36 25.13011 -26.69027 33031 ft 513 kts 53°
2026-04-18 02:36 25.17047 -26.62535 33033 ft 513 kts 53°
2026-04-18 02:37 25.21110 -26.55992 33032 ft 513 kts 53°
2026-04-18 02:37 25.25123 -26.49519 33032 ft 513 kts 53°
2026-04-18 02:38 25.29163 -26.42993 33029 ft 513 kts 53°
2026-04-18 02:38 25.33184 -26.36489 33030 ft 512 kts 53°
2026-04-18 02:39 25.37219 -26.29954 33032 ft 512 kts 53°
2026-04-18 02:39 25.41226 -26.23456 33028 ft 512 kts 53°
2026-04-18 02:40 25.45239 -26.16939 33030 ft 512 kts 53°
2026-04-18 02:40 25.49257 -26.10405 33025 ft 512 kts 53°
2026-04-18 02:41 25.53253 -26.03896 33029 ft 512 kts 53°
2026-04-18 02:41 25.57261 -25.97360 33024 ft 512 kts 53°
2026-04-18 02:42 25.61246 -25.90852 33030 ft 512 kts 54°
2026-04-18 02:42 25.65260 -25.84289 33027 ft 512 kts 54°
2026-04-18 02:43 25.69228 -25.77790 33024 ft 512 kts 54°
2026-04-18 02:43 25.73240 -25.71211 33025 ft 512 kts 54°
2026-04-18 02:44 25.77229 -25.64659 33026 ft 512 kts 54°
2026-04-18 02:44 25.81213 -25.58108 33009 ft 512 kts 54°
2026-04-18 02:45 25.85182 -25.51570 33027 ft 512 kts 54°
2026-04-18 02:45 25.89170 -25.44995 33032 ft 512 kts 54°
2026-04-18 02:46 25.93144 -25.38430 33015 ft 511 kts 54°
2026-04-18 02:46 25.97097 -25.31893 33020 ft 511 kts 54°
2026-04-18 02:47 26.01077 -25.25300 33020 ft 511 kts 54°
2026-04-18 02:47 26.05037 -25.18733 33017 ft 511 kts 54°
2026-04-18 02:48 26.09009 -25.12135 33015 ft 511 kts 55°
2026-04-18 02:48 26.12950 -25.05580 33016 ft 511 kts 55°
2026-04-18 02:49 26.16917 -24.98971 33019 ft 511 kts 55°
2026-04-18 02:49 26.20864 -24.92388 33014 ft 510 kts 55°
2026-04-18 02:50 26.24795 -24.85820 33013 ft 510 kts 55°
2026-04-18 02:50 26.28730 -24.79237 33014 ft 510 kts 55°
2026-04-18 02:51 26.32661 -24.72652 33010 ft 510 kts 55°
2026-04-18 02:51 26.36596 -24.66050 33008 ft 510 kts 55°
2026-04-18 02:52 26.40533 -24.59434 33007 ft 510 kts 55°
2026-04-18 02:52 26.44429 -24.52876 33009 ft 510 kts 55°
2026-04-18 02:53 26.48357 -24.46253 33009 ft 510 kts 55°
2026-04-18 02:53 26.52250 -24.39682 33009 ft 509 kts 56°
2026-04-18 02:54 26.56182 -24.33036 33007 ft 509 kts 56°
2026-04-18 02:54 26.60087 -24.26426 33006 ft 509 kts 56°
2026-04-18 02:55 26.63993 -24.19806 33010 ft 509 kts 56°
2026-04-18 02:55 26.67888 -24.13194 33011 ft 509 kts 56°
2026-04-18 02:56 26.71777 -24.06582 33009 ft 509 kts 56°
2026-04-18 02:56 26.77623 -23.96627 33004 ft 509 kts 56°
2026-04-18 02:57 26.81489 -23.90033 33004 ft 509 kts 56°
2026-04-18 02:57 26.85367 -23.83409 33005 ft 509 kts 56°
2026-04-18 02:58 26.89248 -23.76769 33006 ft 509 kts 56°
2026-04-18 02:58 26.93143 -23.70095 32999 ft 509 kts 56°
2026-04-18 02:59 26.97006 -23.63464 33002 ft 509 kts 56°
2026-04-18 02:59 27.00889 -23.56790 33002 ft 510 kts 56°
2026-04-18 03:00 27.04759 -23.50126 33002 ft 509 kts 56°
2026-04-18 03:00 27.08616 -23.43477 33004 ft 509 kts 56°
2026-04-18 03:01 27.12488 -23.36791 33002 ft 509 kts 56°
2026-04-18 03:01 27.16358 -23.30098 33002 ft 509 kts 56°
2026-04-18 03:02 27.20206 -23.23433 33001 ft 509 kts 56°
2026-04-18 03:02 27.24053 -23.16761 32999 ft 509 kts 56°
2026-04-18 03:03 27.27893 -23.10090 32998 ft 509 kts 57°
2026-04-18 03:03 27.31767 -23.03350 33001 ft 509 kts 57°
2026-04-18 03:04 27.35581 -22.96703 32994 ft 509 kts 57°
2026-04-18 03:04 27.39419 -22.90005 32996 ft 509 kts 57°
2026-04-18 03:05 27.43251 -22.83309 32997 ft 509 kts 57°
2026-04-18 03:05 27.47080 -22.76606 32996 ft 508 kts 57°
2026-04-18 03:06 27.50921 -22.69872 32990 ft 509 kts 57°
2026-04-18 03:06 27.54735 -22.63175 32991 ft 509 kts 57°
2026-04-18 03:07 27.58555 -22.56458 32990 ft 509 kts 57°
2026-04-18 03:07 27.62373 -22.49732 32992 ft 509 kts 57°
2026-04-18 03:08 27.66176 -22.43023 32989 ft 509 kts 57°
2026-04-18 03:08 27.70009 -22.36252 32989 ft 509 kts 57°
2026-04-18 03:09 27.73816 -22.29515 32996 ft 509 kts 57°
2026-04-18 03:09 27.77631 -22.22753 32987 ft 509 kts 57°
2026-04-18 03:10 27.81425 -22.16019 32992 ft 509 kts 57°
2026-04-18 03:10 27.85209 -22.09292 32993 ft 509 kts 57°
2026-04-18 03:11 27.89003 -22.02535 32989 ft 509 kts 57°
2026-04-18 03:11 27.92812 -21.95741 32988 ft 509 kts 57°
2026-04-18 03:12 27.96597 -21.88981 32989 ft 509 kts 57°
2026-04-18 03:12 28.00394 -21.82188 32988 ft 509 kts 58°
2026-04-18 03:13 28.04164 -21.75433 32989 ft 509 kts 58°
2026-04-18 03:13 28.07948 -21.68642 32984 ft 509 kts 58°
2026-04-18 03:14 28.11750 -21.61807 32983 ft 510 kts 58°
2026-04-18 03:14 28.15520 -21.55019 32985 ft 510 kts 58°
2026-04-18 03:15 28.19286 -21.48228 32984 ft 510 kts 58°
2026-04-18 03:15 28.23065 -21.41403 32984 ft 510 kts 58°
2026-04-18 03:16 28.26826 -21.34599 32985 ft 510 kts 58°
2026-04-18 03:16 28.30607 -21.27747 32986 ft 510 kts 58°
2026-04-18 03:17 28.34372 -21.20913 32987 ft 510 kts 58°
2026-04-18 03:17 28.38128 -21.14084 32984 ft 510 kts 58°
2026-04-18 03:18 28.41884 -21.07246 32983 ft 510 kts 58°
2026-04-18 03:18 28.45637 -21.00402 32982 ft 510 kts 58°
2026-04-18 03:19 28.49385 -20.93556 32977 ft 510 kts 58°
2026-04-18 03:19 28.53135 -20.86694 32984 ft 510 kts 58°
2026-04-18 03:20 28.56877 -20.79835 32977 ft 510 kts 58°
2026-04-18 03:20 28.59991 -20.74120 32981 ft 510 kts 58°
2026-04-18 03:21 28.63740 -20.67228 32985 ft 510 kts 58°
2026-04-18 03:21 28.67474 -20.60353 32981 ft 510 kts 58°
2026-04-18 03:22 28.71190 -20.53500 32985 ft 510 kts 59°
2026-04-18 03:22 28.74915 -20.46617 32977 ft 510 kts 59°
2026-04-18 03:23 28.78653 -20.39701 32982 ft 510 kts 59°
2026-04-18 03:23 28.82365 -20.32821 32972 ft 511 kts 59°
2026-04-18 03:24 28.86091 -20.25904 32980 ft 511 kts 59°
2026-04-18 03:24 28.89824 -20.18962 32976 ft 511 kts 59°
2026-04-18 03:25 28.93529 -20.12059 32972 ft 511 kts 59°
2026-04-18 03:25 28.97242 -20.05130 32975 ft 511 kts 59°
2026-04-18 03:26 29.00954 -19.98169 32971 ft 511 kts 59°
2026-04-18 03:26 29.04579 -19.91186 32974 ft 512 kts 60°
2026-04-18 03:27 29.08201 -19.84166 32972 ft 512 kts 60°
2026-04-18 03:27 29.11824 -19.77145 32968 ft 512 kts 60°
2026-04-18 03:28 29.15432 -19.70145 32969 ft 512 kts 60°
2026-04-18 03:28 29.19059 -19.63100 32970 ft 512 kts 60°
2026-04-18 03:29 29.22669 -19.56077 32970 ft 513 kts 60°
2026-04-18 03:29 29.26291 -19.49019 32969 ft 513 kts 60°
2026-04-18 03:30 29.29903 -19.41966 32969 ft 513 kts 60°
2026-04-18 03:30 29.33521 -19.34890 32968 ft 513 kts 60°
2026-04-18 03:31 29.37113 -19.27854 32970 ft 513 kts 60°
2026-04-18 03:31 29.40709 -19.20797 32973 ft 513 kts 60°
2026-04-18 03:32 29.44326 -19.13688 32971 ft 513 kts 60°
2026-04-18 03:32 29.47895 -19.06659 32974 ft 513 kts 60°
2026-04-18 03:33 29.51502 -18.99543 32977 ft 513 kts 60°
2026-04-18 03:33 29.55080 -18.92472 32980 ft 512 kts 60°
2026-04-18 03:34 29.58664 -18.85376 32982 ft 512 kts 60°
2026-04-18 03:34 29.62225 -18.78314 32981 ft 512 kts 60°
2026-04-18 03:35 29.65807 -18.71198 32984 ft 512 kts 60°
2026-04-18 03:35 29.69363 -18.64121 32985 ft 512 kts 60°
2026-04-18 03:36 29.72934 -18.57000 32987 ft 512 kts 60°
2026-04-18 03:36 29.76481 -18.49917 32991 ft 511 kts 60°
2026-04-18 03:37 29.80023 -18.42830 32992 ft 511 kts 60°
2026-04-18 03:37 29.83564 -18.35731 32998 ft 511 kts 60°
2026-04-18 03:38 29.87117 -18.28598 32994 ft 511 kts 60°
2026-04-18 03:38 29.90651 -18.21489 32996 ft 511 kts 60°
2026-04-18 03:39 29.94182 -18.14373 33003 ft 511 kts 60°
2026-04-18 03:39 29.97711 -18.07248 33002 ft 511 kts 61°
2026-04-18 03:40 30.01247 -18.00097 33002 ft 512 kts 61°
2026-04-18 03:40 30.04766 -17.92967 33004 ft 512 kts 61°
2026-04-18 03:41 30.08294 -17.85806 33003 ft 512 kts 61°
2026-04-18 03:41 30.11809 -17.78657 33007 ft 512 kts 61°
2026-04-18 03:42 30.15331 -17.71483 33010 ft 512 kts 61°
2026-04-18 03:42 30.18860 -17.64282 33009 ft 513 kts 61°
2026-04-18 03:43 30.22366 -17.57113 33011 ft 513 kts 61°
2026-04-18 03:43 30.25860 -17.49956 33015 ft 513 kts 61°
2026-04-18 03:44 30.29365 -17.42764 33011 ft 513 kts 61°
2026-04-18 03:44 30.32870 -17.35558 33015 ft 513 kts 61°
2026-04-18 03:45 30.36363 -17.28364 33014 ft 513 kts 61°
2026-04-18 03:45 30.39873 -17.21120 33018 ft 513 kts 61°
2026-04-18 03:46 30.43361 -17.13910 33021 ft 513 kts 61°
2026-04-18 03:46 30.46838 -17.06710 33016 ft 513 kts 61°
2026-04-18 03:47 30.50320 -16.99483 33020 ft 512 kts 61°
2026-04-18 03:47 30.53797 -16.92256 33021 ft 512 kts 61°
2026-04-18 03:48 30.57253 -16.85058 33020 ft 512 kts 61°
2026-04-18 03:48 30.60734 -16.77795 33022 ft 512 kts 61°
2026-04-18 03:49 30.64193 -16.70564 33017 ft 512 kts 61°
2026-04-18 03:49 30.67649 -16.63326 33020 ft 512 kts 61°
2026-04-18 03:50 30.71101 -16.56082 33020 ft 512 kts 61°
2026-04-18 03:50 30.74532 -16.48870 33022 ft 512 kts 61°
2026-04-18 03:51 30.77994 -16.41578 33023 ft 512 kts 61°
2026-04-18 03:51 30.81431 -16.34326 33025 ft 512 kts 61°
2026-04-18 03:52 30.84853 -16.27090 33022 ft 512 kts 61°
2026-04-18 03:52 30.88288 -16.19815 33023 ft 512 kts 61°
2026-04-18 03:53 30.91730 -16.12508 33021 ft 512 kts 61°
2026-04-18 03:53 30.95149 -16.05238 33020 ft 513 kts 62°
2026-04-18 03:54 30.98576 -15.97936 33022 ft 513 kts 62°
2026-04-18 03:54 31.01995 -15.90639 33025 ft 513 kts 62°
2026-04-18 03:55 31.05414 -15.83327 33024 ft 513 kts 62°
2026-04-18 03:55 31.08831 -15.76004 33025 ft 513 kts 62°
2026-04-18 03:56 31.12237 -15.68692 33026 ft 513 kts 62°
2026-04-18 03:56 31.15639 -15.61373 33022 ft 513 kts 62°
2026-04-18 03:57 31.20736 -15.50382 33026 ft 513 kts 62°
2026-04-18 03:58 31.24146 -15.43011 33026 ft 513 kts 62°
2026-04-18 03:58 31.27532 -15.35676 33030 ft 513 kts 62°
2026-04-18 03:59 31.30911 -15.28341 33032 ft 513 kts 62°
2026-04-18 03:59 31.34285 -15.20999 33032 ft 512 kts 62°
2026-04-18 04:00 31.37660 -15.13638 33030 ft 513 kts 62°
2026-04-18 04:00 31.41017 -15.06299 33035 ft 513 kts 62°
2026-04-18 04:01 31.44404 -14.98882 33034 ft 513 kts 62°
2026-04-18 04:01 31.47746 -14.91547 33036 ft 513 kts 62°
2026-04-18 04:02 31.51111 -14.84147 33039 ft 513 kts 62°
2026-04-18 04:02 31.54468 -14.76750 33033 ft 513 kts 62°
2026-04-18 04:03 31.57825 -14.69343 33040 ft 513 kts 62°
2026-04-18 04:03 31.61176 -14.61938 33048 ft 513 kts 62°
2026-04-18 04:04 31.64518 -14.54531 33046 ft 513 kts 62°
2026-04-18 04:04 31.67861 -14.47107 33045 ft 513 kts 62°
2026-04-18 04:05 31.71196 -14.39685 33048 ft 513 kts 62°
2026-04-18 04:05 31.74515 -14.32286 33052 ft 513 kts 62°
2026-04-18 04:06 31.77839 -14.24857 33048 ft 513 kts 62°
2026-04-18 04:06 31.81158 -14.17426 33048 ft 513 kts 62°
2026-04-18 04:07 31.84471 -14.09993 33050 ft 513 kts 62°
2026-04-18 04:07 31.87778 -14.02558 33047 ft 513 kts 62°
2026-04-18 04:08 31.90556 -13.96301 33044 ft 513 kts 62°
2026-04-18 04:08 31.93860 -13.88846 33045 ft 513 kts 62°
2026-04-18 04:09 31.97153 -13.81400 33062 ft 513 kts 62°
2026-04-18 04:09 32.00440 -13.73954 33043 ft 513 kts 62°
2026-04-18 04:10 32.03749 -13.66439 33042 ft 513 kts 62°
2026-04-18 04:10 32.07033 -13.58970 33055 ft 513 kts 62°
2026-04-18 04:11 32.10303 -13.51514 33059 ft 513 kts 62°
2026-04-18 04:11 32.13598 -13.43988 33047 ft 513 kts 62°
2026-04-18 04:12 32.16868 -13.36501 33039 ft 513 kts 62°
2026-04-18 04:12 32.20125 -13.29032 33053 ft 513 kts 62°
2026-04-18 04:13 32.23407 -13.21487 33054 ft 513 kts 62°
2026-04-18 04:13 32.26672 -13.13965 33039 ft 513 kts 62°
2026-04-18 04:14 32.29926 -13.06455 33053 ft 513 kts 62°
2026-04-18 04:14 32.33183 -12.98921 33051 ft 514 kts 62°
2026-04-18 04:15 32.36411 -12.91437 33053 ft 514 kts 62°
2026-04-18 04:15 32.39664 -12.83884 33051 ft 514 kts 62°
2026-04-18 04:16 32.42901 -12.76349 33050 ft 514 kts 62°
2026-04-18 04:16 32.46141 -12.68791 33051 ft 514 kts 62°
2026-04-18 04:17 32.49371 -12.61239 33046 ft 514 kts 62°
2026-04-18 04:17 32.52602 -12.53671 33048 ft 514 kts 62°
2026-04-18 04:18 32.55812 -12.46137 33050 ft 514 kts 62°
2026-04-18 04:18 32.59032 -12.38563 33047 ft 514 kts 62°
2026-04-18 04:19 32.62251 -12.30972 33047 ft 514 kts 62°
2026-04-18 04:19 32.65461 -12.23389 33046 ft 514 kts 62°
2026-04-18 04:20 32.68679 -12.15770 33049 ft 514 kts 62°
2026-04-18 04:20 32.71881 -12.08173 33047 ft 514 kts 62°
2026-04-18 04:21 32.75063 -12.00608 33046 ft 514 kts 62°
2026-04-18 04:21 32.78279 -11.92946 33046 ft 514 kts 62°
2026-04-18 04:22 32.81454 -11.85362 33050 ft 514 kts 62°
2026-04-18 04:22 32.84650 -11.77715 33046 ft 514 kts 62°
2026-04-18 04:23 32.87830 -11.70087 33049 ft 514 kts 62°
2026-04-18 04:23 32.90993 -11.62485 33046 ft 514 kts 62°
2026-04-18 04:24 32.94170 -11.54831 33050 ft 514 kts 62°
2026-04-18 04:24 32.97335 -11.47192 33050 ft 514 kts 62°
2026-04-18 04:25 33.00508 -11.39513 33049 ft 514 kts 62°
2026-04-18 04:25 33.03650 -11.31894 33045 ft 514 kts 62°
2026-04-18 04:26 33.06798 -11.24245 33047 ft 514 kts 62°
2026-04-18 04:26 33.09958 -11.16550 33046 ft 514 kts 62°
2026-04-18 04:27 33.13097 -11.08885 33046 ft 514 kts 62°
2026-04-18 04:27 33.16217 -11.01256 33047 ft 514 kts 62°
2026-04-18 04:28 33.19365 -10.93536 33046 ft 513 kts 62°
2026-04-18 04:28 33.22488 -10.85862 33049 ft 513 kts 62°
2026-04-18 04:29 33.25596 -10.78210 33034 ft 513 kts 62°
2026-04-18 04:29 33.28703 -10.70544 33050 ft 513 kts 62°
2026-04-18 04:30 33.31810 -10.62857 33049 ft 512 kts 62°
2026-04-18 04:30 33.34900 -10.55198 33037 ft 512 kts 62°
2026-04-18 04:31 33.38002 -10.47491 33036 ft 512 kts 63°
2026-04-18 04:31 33.41080 -10.39825 33038 ft 511 kts 63°
2026-04-18 04:32 33.44159 -10.32140 33052 ft 511 kts 63°
2026-04-18 04:32 33.47236 -10.24445 33039 ft 511 kts 63°
2026-04-18 04:33 33.50293 -10.16780 33042 ft 510 kts 63°
2026-04-18 04:33 33.53360 -10.09075 33041 ft 510 kts 63°
2026-04-18 04:34 33.56418 -10.01371 33043 ft 510 kts 63°
2026-04-18 04:34 33.59459 -9.93697 33045 ft 510 kts 63°
2026-04-18 04:35 33.62486 -9.86039 33040 ft 509 kts 63°
2026-04-18 04:35 33.65512 -9.78364 33042 ft 509 kts 63°
2026-04-18 04:36 33.68539 -9.70673 33041 ft 508 kts 63°
2026-04-18 04:36 33.71569 -9.62953 33041 ft 508 kts 63°
2026-04-18 04:37 33.74566 -9.55303 33040 ft 507 kts 63°
2026-04-18 04:37 33.77572 -9.47611 33049 ft 506 kts 63°
2026-04-18 04:38 33.80556 -9.39955 33041 ft 506 kts 63°
2026-04-18 04:38 33.83540 -9.32286 33041 ft 505 kts 63°
2026-04-18 04:39 33.86517 -9.24614 33039 ft 504 kts 63°
2026-04-18 04:39 33.89475 -9.16975 33040 ft 504 kts 63°
2026-04-18 04:40 33.92436 -9.09312 33045 ft 503 kts 63°
2026-04-18 04:40 33.95391 -9.01646 33045 ft 503 kts 64°
2026-04-18 04:41 33.98322 -8.94023 33042 ft 502 kts 64°
2026-04-18 04:41 34.01246 -8.86402 33043 ft 502 kts 64°
2026-04-18 04:42 34.04186 -8.78722 33042 ft 501 kts 64°
2026-04-18 04:42 34.07088 -8.71124 33042 ft 501 kts 64°
2026-04-18 04:43 34.10001 -8.63476 33042 ft 500 kts 64°
2026-04-18 04:43 34.12916 -8.55803 33035 ft 500 kts 64°
2026-04-18 04:44 34.15791 -8.48217 33034 ft 499 kts 64°
2026-04-18 04:44 34.18603 -8.40546 33038 ft 499 kts 66°
2026-04-18 04:45 34.21280 -8.32761 33035 ft 499 kts 66°
2026-04-18 04:45 34.23930 -8.25031 33034 ft 498 kts 67°
2026-04-18 04:46 34.26596 -8.17268 33033 ft 498 kts 67°
2026-04-18 04:46 34.29251 -8.09536 33030 ft 497 kts 67°
2026-04-18 04:47 34.31887 -8.01843 33031 ft 497 kts 67°
2026-04-18 04:47 34.34529 -7.94116 33030 ft 496 kts 67°
2026-04-18 04:48 34.37180 -7.86346 33027 ft 496 kts 67°
2026-04-18 04:48 34.39793 -7.78668 33028 ft 496 kts 67°
2026-04-18 04:49 34.42431 -7.70896 33027 ft 495 kts 68°
2026-04-18 04:49 34.45036 -7.63202 33023 ft 495 kts 68°
2026-04-18 04:50 34.47645 -7.55479 33024 ft 495 kts 68°
2026-04-18 04:50 34.50241 -7.47773 33022 ft 494 kts 68°
2026-04-18 04:51 34.52854 -7.39999 33024 ft 494 kts 68°
2026-04-18 04:51 34.55440 -7.32283 33026 ft 494 kts 68°
2026-04-18 04:52 34.58012 -7.24593 33024 ft 493 kts 68°
2026-04-18 04:52 34.60603 -7.16825 33024 ft 493 kts 68°
2026-04-18 04:53 34.63159 -7.09143 33025 ft 493 kts 69°
2026-04-18 04:53 34.65733 -7.01389 33023 ft 492 kts 69°
2026-04-18 04:54 34.68277 -6.93704 33022 ft 492 kts 69°
2026-04-18 04:54 34.70831 -6.85968 33021 ft 491 kts 69°
2026-04-18 04:55 34.72946 -6.79552 33020 ft 491 kts 69°
2026-04-18 04:55 34.75482 -6.71832 33015 ft 490 kts 69°
2026-04-18 04:56 34.79269 -6.60274 33015 ft 490 kts 69°
2026-04-18 04:56 34.81779 -6.52588 33013 ft 489 kts 69°
2026-04-18 04:57 34.84289 -6.44884 33015 ft 489 kts 69°
2026-04-18 04:57 34.86797 -6.37166 33013 ft 489 kts 70°
2026-04-18 04:58 34.89300 -6.29442 33008 ft 488 kts 70°
2026-04-18 04:58 34.91785 -6.21756 33014 ft 488 kts 70°
2026-04-18 04:59 34.94268 -6.14055 33019 ft 488 kts 70°
2026-04-18 04:59 34.96745 -6.06355 33024 ft 488 kts 70°
2026-04-18 05:00 34.99221 -5.98636 33023 ft 488 kts 70°
2026-04-18 05:00 35.01693 -5.90913 33027 ft 488 kts 70°
2026-04-18 05:01 35.04152 -5.83207 33029 ft 488 kts 70°
2026-04-18 05:01 35.06608 -5.75491 33037 ft 487 kts 70°
2026-04-18 05:02 35.09071 -5.67733 33045 ft 487 kts 70°
2026-04-18 05:02 35.11508 -5.60039 33048 ft 488 kts 70°
2026-04-18 05:03 35.13959 -5.52265 33057 ft 488 kts 70°
2026-04-18 05:03 35.16384 -5.44556 33066 ft 488 kts 70°
2026-04-18 05:04 35.18833 -5.36759 33070 ft 488 kts 70°
2026-04-18 05:04 35.21257 -5.29023 33073 ft 488 kts 70°
2026-04-18 05:05 35.23686 -5.21251 33081 ft 488 kts 70°
2026-04-18 05:05 35.26095 -5.13524 33084 ft 488 kts 70°
2026-04-18 05:06 35.28515 -5.05739 33088 ft 488 kts 70°
2026-04-18 05:06 35.30928 -4.97960 33091 ft 488 kts 70°
2026-04-18 05:07 35.33346 -4.90140 33096 ft 488 kts 70°
2026-04-18 05:07 35.35738 -4.82386 33097 ft 488 kts 70°
2026-04-18 05:08 35.38132 -4.74605 33099 ft 488 kts 70°
2026-04-18 05:08 35.40533 -4.66776 33095 ft 488 kts 70°
2026-04-18 05:09 35.42920 -4.58976 33095 ft 488 kts 70°
2026-04-18 05:09 35.45286 -4.51224 33098 ft 488 kts 70°
2026-04-18 05:10 35.47663 -4.43412 33100 ft 488 kts 70°
2026-04-18 05:10 35.50046 -4.35562 33098 ft 488 kts 70°
2026-04-18 05:11 35.52408 -4.27758 33098 ft 488 kts 70°
2026-04-18 05:11 35.54764 -4.19951 33097 ft 489 kts 70°
2026-04-18 05:12 35.57125 -4.12111 33098 ft 489 kts 70°
2026-04-18 05:12 35.59480 -4.04262 33095 ft 489 kts 70°
2026-04-18 05:13 35.61829 -3.96416 33093 ft 489 kts 70°
2026-04-18 05:13 35.64183 -3.88531 33098 ft 489 kts 70°
2026-04-18 05:14 35.66519 -3.80681 33129 ft 489 kts 68°
2026-04-18 05:14 35.68864 -3.72764 33102 ft 497 kts 69°
2026-04-18 05:15 35.71242 -3.64747 33094 ft 497 kts 69°
2026-04-18 05:15 35.73614 -3.56718 33100 ft 497 kts 69°
2026-04-18 05:16 35.75963 -3.48737 33101 ft 497 kts 69°
2026-04-18 05:16 35.78312 -3.40733 33102 ft 496 kts 69°
2026-04-18 05:17 35.80659 -3.32708 33095 ft 496 kts 69°
2026-04-18 05:17 35.83028 -3.24734 33103 ft 496 kts 67°
2026-04-18 05:18 35.85841 -3.16994 33106 ft 495 kts 64°
2026-04-18 05:18 35.88800 -3.09346 33101 ft 495 kts 64°
2026-04-18 05:19 35.91759 -3.01685 33107 ft 494 kts 64°
2026-04-18 05:19 35.94717 -2.93989 33111 ft 494 kts 64°
2026-04-18 05:20 35.97656 -2.86316 33102 ft 494 kts 64°
2026-04-18 05:20 36.00587 -2.78644 33112 ft 494 kts 64°
2026-04-18 05:21 36.03529 -2.70923 33111 ft 495 kts 64°
2026-04-18 05:21 36.06455 -2.63225 33110 ft 495 kts 64°
2026-04-18 05:22 36.09389 -2.55485 33100 ft 495 kts 64°
2026-04-18 05:22 36.12297 -2.47797 33110 ft 495 kts 65°
2026-04-18 05:23 36.15209 -2.40080 33106 ft 495 kts 65°
2026-04-18 05:23 36.18125 -2.32334 33113 ft 495 kts 65°
2026-04-18 05:24 36.21030 -2.24598 33107 ft 495 kts 65°
2026-04-18 05:24 36.23938 -2.16834 33110 ft 495 kts 65°
2026-04-18 05:25 36.26827 -2.09100 33115 ft 495 kts 65°
2026-04-18 05:25 36.29710 -2.01362 33112 ft 495 kts 65°
2026-04-18 05:26 36.32614 -1.93549 33113 ft 495 kts 65°
2026-04-18 05:26 36.35473 -1.85841 33118 ft 495 kts 65°
2026-04-18 05:27 36.38358 -1.78043 33120 ft 494 kts 65°
2026-04-18 05:27 36.41226 -1.70271 33120 ft 494 kts 65°
2026-04-18 05:28 36.44107 -1.62446 33124 ft 494 kts 65°
2026-04-18 05:28 36.46953 -1.54693 33124 ft 494 kts 65°
2026-04-18 05:29 36.49804 -1.46911 33128 ft 494 kts 65°
2026-04-18 05:29 36.52650 -1.39122 33122 ft 495 kts 65°
2026-04-18 05:30 36.55483 -1.31348 33114 ft 495 kts 65°
2026-04-18 05:30 36.58334 -1.23503 33114 ft 495 kts 65°
2026-04-18 05:31 36.61151 -1.15734 33122 ft 495 kts 66°
2026-04-18 05:31 36.63979 -1.07917 33113 ft 495 kts 66°
2026-04-18 05:32 36.66807 -1.00078 33124 ft 495 kts 66°
2026-04-18 05:32 36.69627 -0.92241 33124 ft 495 kts 66°
2026-04-18 05:33 36.72445 -0.84389 33119 ft 496 kts 66°
2026-04-18 05:33 36.75262 -0.76520 33125 ft 496 kts 66°
2026-04-18 05:34 36.78070 -0.68654 33126 ft 496 kts 66°
2026-04-18 05:34 36.80878 -0.60773 33124 ft 496 kts 66°
2026-04-18 05:35 36.83682 -0.52876 33118 ft 496 kts 66°
2026-04-18 05:35 36.86469 -0.45013 33127 ft 496 kts 66°
2026-04-18 05:36 36.89259 -0.37115 33125 ft 496 kts 66°
2026-04-18 05:36 36.92039 -0.29227 33125 ft 496 kts 66°
2026-04-18 05:37 36.94829 -0.21292 33122 ft 496 kts 66°
2026-04-18 05:37 36.97611 -0.13358 33128 ft 496 kts 66°
2026-04-18 05:38 37.00366 -0.05481 33122 ft 496 kts 66°
2026-04-18 05:38 37.03144 0.02484 33127 ft 497 kts 66°
2026-04-18 05:39 37.05895 0.10394 33125 ft 496 kts 66°
2026-04-18 05:39 37.08647 0.18325 33128 ft 496 kts 66°
2026-04-18 05:40 37.10941 0.24954 33133 ft 496 kts 66°
2026-04-18 05:40 37.14136 0.34209 33131 ft 496 kts 66°
2026-04-18 05:41 37.16426 0.40860 33131 ft 496 kts 66°
2026-04-18 05:41 37.19152 0.48799 33135 ft 496 kts 66°
2026-04-18 05:42 37.21867 0.56727 33129 ft 496 kts 66°
2026-04-18 05:42 37.24589 0.64694 33131 ft 496 kts 66°
2026-04-18 05:43 37.27296 0.72638 33138 ft 495 kts 66°
2026-04-18 05:43 37.30004 0.80609 33137 ft 495 kts 66°
2026-04-18 05:44 37.32697 0.88555 33130 ft 496 kts 66°
2026-04-18 05:44 37.35412 0.96589 33137 ft 495 kts 66°
2026-04-18 05:45 37.38087 1.04524 33128 ft 495 kts 66°
2026-04-18 05:45 37.40775 1.12523 33139 ft 495 kts 66°
2026-04-18 05:46 37.43447 1.20493 33135 ft 495 kts 66°
2026-04-18 05:46 37.46134 1.28533 33147 ft 495 kts 66°
2026-04-18 05:47 37.48802 1.36533 33132 ft 495 kts 66°
2026-04-18 05:47 37.51462 1.44536 33150 ft 495 kts 66°
2026-04-18 05:48 37.54103 1.52501 33151 ft 495 kts 66°
2026-04-18 05:48 37.56751 1.60510 33133 ft 495 kts 66°
2026-04-18 05:49 37.59410 1.68575 33138 ft 494 kts 66°
2026-04-18 05:49 37.62035 1.76556 33148 ft 494 kts 66°
2026-04-18 05:50 37.64682 1.84629 33154 ft 494 kts 66°
2026-04-18 05:50 37.67294 1.92617 33140 ft 494 kts 66°
2026-04-18 05:51 37.69913 2.00650 33141 ft 494 kts 66°
2026-04-18 05:51 37.72534 2.08711 33141 ft 494 kts 66°
2026-04-18 05:52 37.75139 2.16747 33147 ft 494 kts 66°
2026-04-18 05:52 37.77744 2.24809 33150 ft 494 kts 66°
2026-04-18 05:53 37.80229 2.32892 33151 ft 495 kts 70°
2026-04-18 05:53 37.82185 2.41278 33152 ft 496 kts 73°
2026-04-18 05:54 37.83995 2.49733 33152 ft 496 kts 73°
2026-04-18 05:54 37.85791 2.58155 33149 ft 496 kts 73°
2026-04-18 05:55 37.87581 2.66550 33156 ft 495 kts 73°
2026-04-18 05:55 37.89379 2.75009 33154 ft 495 kts 73°
2026-04-18 05:56 37.91155 2.83394 33151 ft 495 kts 73°
2026-04-18 05:56 37.92938 2.91839 33158 ft 494 kts 73°
2026-04-18 05:57 37.95591 3.04473 33156 ft 494 kts 73°
2026-04-18 05:58 37.97350 3.12887 33154 ft 494 kts 73°
2026-04-18 05:58 37.99101 3.21298 33156 ft 493 kts 73°
2026-04-18 05:59 38.00848 3.29719 33154 ft 493 kts 73°
2026-04-18 05:59 38.02595 3.38180 33155 ft 493 kts 73°
2026-04-18 06:00 38.04320 3.46558 33156 ft 492 kts 73°
2026-04-18 06:00 38.06052 3.55011 33154 ft 492 kts 73°
2026-04-18 06:01 38.07768 3.63416 33160 ft 492 kts 73°
2026-04-18 06:01 38.09471 3.71790 33157 ft 491 kts 73°
2026-04-18 06:02 38.11173 3.80194 33158 ft 490 kts 73°
2026-04-18 06:02 38.12869 3.88597 33155 ft 490 kts 73°
2026-04-18 06:03 38.14558 3.97004 33160 ft 490 kts 73°
2026-04-18 06:03 38.16233 4.05377 33163 ft 489 kts 73°
2026-04-18 06:04 38.17911 4.13793 33159 ft 489 kts 73°
2026-04-18 06:04 38.19579 4.22197 33160 ft 488 kts 73°
2026-04-18 06:05 38.21239 4.30594 33159 ft 488 kts 73°
2026-04-18 06:05 38.22885 4.38955 33157 ft 488 kts 73°
2026-04-18 06:06 38.24525 4.47316 33156 ft 488 kts 73°
2026-04-18 06:06 38.26158 4.55678 33156 ft 487 kts 73°
2026-04-18 06:07 38.27793 4.64088 33159 ft 487 kts 73°
2026-04-18 06:07 38.29420 4.72487 33160 ft 487 kts 73°
2026-04-18 06:08 38.31027 4.80814 33159 ft 487 kts 74°
2026-04-18 06:08 38.32644 4.89233 33157 ft 487 kts 74°
2026-04-18 06:09 38.34245 4.97601 33156 ft 486 kts 74°
2026-04-18 06:09 38.35839 5.05964 33159 ft 486 kts 74°
2026-04-18 06:10 38.37432 5.14362 33162 ft 486 kts 74°
2026-04-18 06:10 38.39021 5.22772 33159 ft 486 kts 74°
2026-04-18 06:11 38.40591 5.31121 33155 ft 486 kts 74°
2026-04-18 06:11 38.42165 5.39520 33155 ft 486 kts 74°
2026-04-18 06:12 38.43738 5.47954 33156 ft 486 kts 74°
2026-04-18 06:12 38.45296 5.56341 33155 ft 486 kts 74°
2026-04-18 06:13 38.46852 5.64754 33155 ft 486 kts 74°
2026-04-18 06:13 38.48396 5.73138 33156 ft 485 kts 74°
2026-04-18 06:14 38.49930 5.81502 33157 ft 485 kts 74°
2026-04-18 06:14 38.51465 5.89909 33156 ft 485 kts 74°
2026-04-18 06:15 38.52997 5.98335 33153 ft 485 kts 74°
2026-04-18 06:15 38.54517 6.06734 33149 ft 485 kts 74°
2026-04-18 06:16 38.56026 6.15108 33152 ft 484 kts 74°
2026-04-18 06:16 38.57539 6.23544 33150 ft 484 kts 74°
2026-04-18 06:17 38.59039 6.31942 33151 ft 484 kts 74°
2026-04-18 06:17 38.60534 6.40349 33152 ft 484 kts 74°
2026-04-18 06:18 38.62022 6.48749 33152 ft 484 kts 74°
2026-04-18 06:18 38.63499 6.57129 33149 ft 483 kts 74°
2026-04-18 06:19 38.64969 6.65509 33144 ft 483 kts 74°
2026-04-18 06:19 38.66444 6.73950 33148 ft 483 kts 74°
2026-04-18 06:20 38.67901 6.82328 33146 ft 483 kts 74°
2026-04-18 06:20 38.69351 6.90703 33144 ft 483 kts 74°
2026-04-18 06:21 38.70805 6.99142 33141 ft 483 kts 74°
2026-04-18 06:21 38.72245 7.07535 33139 ft 483 kts 74°
2026-04-18 06:22 38.73686 7.15976 33142 ft 483 kts 74°
2026-04-18 06:22 38.75111 7.24356 33137 ft 482 kts 74°
2026-04-18 06:23 38.76539 7.32795 33138 ft 482 kts 74°
2026-04-18 06:23 38.77956 7.41206 33134 ft 482 kts 74°
2026-04-18 06:24 38.79360 7.49586 33137 ft 482 kts 74°
2026-04-18 06:24 38.80768 7.58022 33134 ft 482 kts 74°
2026-04-18 06:25 38.82168 7.66451 33133 ft 483 kts 75°
2026-04-18 06:25 38.83559 7.74872 33130 ft 483 kts 75°
2026-04-18 06:26 38.84943 7.83281 33127 ft 483 kts 75°
2026-04-18 06:26 38.86322 7.91710 33125 ft 483 kts 75°
2026-04-18 06:27 38.87708 8.00213 33123 ft 483 kts 75°
2026-04-18 06:27 38.89072 8.08633 33119 ft 483 kts 75°
2026-04-18 06:28 38.90435 8.17075 33125 ft 483 kts 75°
2026-04-18 06:28 38.91790 8.25516 33116 ft 483 kts 75°
2026-04-18 06:29 38.92921 8.32591 33119 ft 483 kts 75°
2026-04-18 06:29 38.94268 8.41055 33105 ft 482 kts 75°
2026-04-18 06:30 38.95602 8.49484 33113 ft 482 kts 75°
2026-04-18 06:30 38.96932 8.57926 33109 ft 482 kts 75°
2026-04-18 06:31 38.98264 8.66419 33120 ft 482 kts 75°
2026-04-18 06:31 38.99579 8.74852 33105 ft 482 kts 75°
2026-04-18 06:32 39.00897 8.83343 33104 ft 482 kts 75°
2026-04-18 06:32 39.02202 8.91790 33097 ft 482 kts 75°
2026-04-18 06:33 39.03509 9.00299 33095 ft 482 kts 75°
2026-04-18 06:33 39.04800 9.08742 33094 ft 482 kts 75°
2026-04-18 06:34 39.06084 9.17192 33093 ft 482 kts 75°
2026-04-18 06:34 39.07366 9.25672 33100 ft 482 kts 75°
2026-04-18 06:35 39.08645 9.34175 33094 ft 482 kts 75°
2026-04-18 06:35 39.10314 9.42468 33091 ft 476 kts 65°
2026-04-18 06:36 39.13278 9.50023 33089 ft 470 kts 53°
2026-04-18 06:36 39.17405 9.56522 33085 ft 464 kts 41°
2026-04-18 06:37 39.22343 9.61766 33087 ft 461 kts 34°
2026-04-18 06:37 39.27442 9.66831 33082 ft 463 kts 37°
2026-04-18 06:38 39.32158 9.72514 33086 ft 465 kts 42°
2026-04-18 06:38 39.36687 9.78488 33080 ft 466 kts 43°
2026-04-18 06:39 39.41197 9.84482 33082 ft 466 kts 43°
2026-04-18 06:39 39.45741 9.90526 33080 ft 466 kts 43°
2026-04-18 06:40 39.50266 9.96553 33082 ft 467 kts 43°
2026-04-18 06:40 39.54765 10.02554 33080 ft 467 kts 43°
2026-04-18 06:41 39.59316 10.08639 33078 ft 467 kts 43°
2026-04-18 06:41 39.63845 10.14704 33078 ft 467 kts 43°
2026-04-18 06:42 39.68352 10.20752 33080 ft 468 kts 43°
2026-04-18 06:42 39.72888 10.26852 33080 ft 468 kts 43°
2026-04-18 06:43 39.77383 10.32910 33074 ft 468 kts 43°
2026-04-18 06:43 39.81908 10.39018 33074 ft 469 kts 43°
2026-04-18 06:44 39.86428 10.45136 33073 ft 469 kts 43°
2026-04-18 06:44 39.90950 10.51270 33059 ft 470 kts 43°
2026-04-18 06:45 39.95480 10.57424 33057 ft 470 kts 43°
2026-04-18 06:45 40.00014 10.63596 33056 ft 470 kts 43°
2026-04-18 06:46 40.04549 10.69783 33071 ft 471 kts 43°
2026-04-18 06:46 40.09067 10.75958 33058 ft 471 kts 43°
2026-04-18 06:47 40.13588 10.82149 33059 ft 471 kts 44°
2026-04-18 06:47 40.18129 10.88382 33062 ft 472 kts 44°
2026-04-18 06:48 40.22639 10.94585 33057 ft 472 kts 44°
2026-04-18 06:48 40.27194 11.00863 33052 ft 472 kts 44°
2026-04-18 06:49 40.31724 11.07119 33053 ft 472 kts 44°
2026-04-18 06:49 40.36211 11.13329 33055 ft 473 kts 44°
2026-04-18 06:50 40.40759 11.19637 33049 ft 473 kts 44°
2026-04-18 06:50 40.45261 11.25894 33047 ft 473 kts 44°
2026-04-18 06:51 40.49772 11.32176 33046 ft 473 kts 44°
2026-04-18 06:51 40.54303 11.38499 33047 ft 473 kts 44°
2026-04-18 06:52 40.58795 11.44780 33048 ft 473 kts 44°
2026-04-18 06:52 40.63310 11.51104 33044 ft 473 kts 44°
2026-04-18 06:53 40.67798 11.57409 33043 ft 472 kts 44°
2026-04-18 06:53 40.72286 11.63727 33046 ft 472 kts 44°
2026-04-18 06:54 40.76807 11.70105 33046 ft 472 kts 44°
2026-04-18 06:54 40.81288 11.76444 33045 ft 472 kts 44°
2026-04-18 06:55 40.85735 11.82747 33047 ft 472 kts 44°
2026-04-18 06:55 40.90271 11.89081 33042 ft 471 kts 44°
2026-04-18 06:56 40.94783 11.95347 33046 ft 471 kts 44°
2026-04-18 06:56 40.99303 12.01647 33046 ft 470 kts 44°
2026-04-18 06:57 41.03798 12.07933 33041 ft 470 kts 44°
2026-04-18 06:57 41.10529 12.17376 33042 ft 470 kts 44°
2026-04-18 06:58 41.15019 12.23691 33041 ft 469 kts 44°
2026-04-18 06:58 41.19497 12.30004 33054 ft 471 kts 44°
2026-04-18 06:59 41.21758 12.33197 33389 ft 472 kts 44°
2026-04-18 06:59 41.23972 12.36329 34009 ft 468 kts 44°
2026-04-18 06:59 41.26197 12.39479 34556 ft 465 kts 44°
2026-04-18 06:59 41.28404 12.42608 35024 ft 463 kts 44°
2026-04-18 07:00 41.30605 12.45728 35437 ft 462 kts 44°
2026-04-18 07:00 41.32808 12.48856 35825 ft 462 kts 44°
2026-04-18 07:00 41.35004 12.51977 36205 ft 461 kts 44°
2026-04-18 07:00 41.37201 12.55103 36585 ft 461 kts 44°
2026-04-18 07:01 41.39390 12.58220 36945 ft 460 kts 44°
2026-04-18 07:01 41.41576 12.61336 37293 ft 459 kts 44°
2026-04-18 07:01 41.43758 12.64450 37636 ft 459 kts 44°
2026-04-18 07:01 41.45937 12.67563 37953 ft 458 kts 44°
2026-04-18 07:02 41.50287 12.73786 38037 ft 458 kts 44°
2026-04-18 07:02 41.54632 12.80017 38037 ft 457 kts 44°
2026-04-18 07:03 41.58944 12.86213 38053 ft 457 kts 44°
2026-04-18 07:03 41.63273 12.92446 38055 ft 457 kts 44°
2026-04-18 07:04 41.67590 12.98675 38055 ft 457 kts 44°
2026-04-18 07:04 41.71928 13.04949 38063 ft 457 kts 44°
2026-04-18 07:05 41.76234 13.11190 38073 ft 457 kts 44°
2026-04-18 07:05 41.80555 13.17466 38069 ft 457 kts 44°
2026-04-18 07:06 41.84856 13.23726 38075 ft 457 kts 44°
2026-04-18 07:06 41.89156 13.29998 38085 ft 456 kts 44°
2026-04-18 07:07 41.93441 13.36265 38094 ft 456 kts 44°
2026-04-18 07:07 41.97741 13.42564 38100 ft 455 kts 44°
2026-04-18 07:08 42.02013 13.48839 38115 ft 455 kts 44°
2026-04-18 07:08 42.06278 13.55116 38118 ft 454 kts 44°
2026-04-18 07:09 42.10545 13.61410 38120 ft 453 kts 45°
2026-04-18 07:09 42.14560 13.67973 38120 ft 456 kts 52°
2026-04-18 07:10 42.17795 13.75359 38127 ft 460 kts 60°
2026-04-18 07:10 42.20136 13.83430 38124 ft 465 kts 70°
2026-04-18 07:11 42.21605 13.91997 38122 ft 467 kts 75°
2026-04-18 07:11 42.22857 14.00621 38121 ft 467 kts 75°
2026-04-18 07:12 42.24104 14.09249 38119 ft 467 kts 75°
2026-04-18 07:12 42.25350 14.17871 38125 ft 467 kts 75°
2026-04-18 07:13 42.26585 14.26438 38115 ft 466 kts 75°
2026-04-18 07:13 42.27820 14.35044 38113 ft 466 kts 75°
2026-04-18 07:14 42.29048 14.43644 38112 ft 466 kts 75°
2026-04-18 07:14 42.30270 14.52256 38108 ft 466 kts 75°
2026-04-18 07:15 42.31486 14.60874 38100 ft 465 kts 75°
2026-04-18 07:15 42.32490 14.68027 38095 ft 465 kts 75°
2026-04-18 07:16 42.33889 14.78042 38092 ft 466 kts 75°
2026-04-18 07:16 42.34892 14.85271 38088 ft 466 kts 75°
2026-04-18 07:17 42.36074 14.93834 38091 ft 466 kts 75°
2026-04-18 07:17 42.37266 15.02516 38085 ft 466 kts 75°
2026-04-18 07:18 42.38445 15.11157 38084 ft 466 kts 75°
2026-04-18 07:18 42.39615 15.19784 38078 ft 467 kts 75°
2026-04-18 07:19 42.40785 15.28459 38075 ft 467 kts 75°
2026-04-18 07:19 42.41948 15.37144 38072 ft 468 kts 75°
2026-04-18 07:20 42.43102 15.45801 38070 ft 468 kts 75°
2026-04-18 07:20 42.44251 15.54485 38072 ft 468 kts 75°
2026-04-18 07:21 42.45391 15.63155 38068 ft 468 kts 75°
2026-04-18 07:21 42.46527 15.71842 38068 ft 468 kts 75°
2026-04-18 07:22 42.47656 15.80538 38066 ft 468 kts 75°
2026-04-18 07:22 42.48786 15.89304 38068 ft 469 kts 75°
2026-04-18 07:23 42.49820 15.98013 38061 ft 471 kts 78°
2026-04-18 07:23 42.50270 16.06921 38063 ft 476 kts 84°
2026-04-18 07:24 42.50006 16.15947 38059 ft 481 kts 90°
2026-04-18 07:24 42.49358 16.24992 38057 ft 481 kts 91°
2026-04-18 07:25 42.48691 16.34045 38058 ft 482 kts 91°
2026-04-18 07:25 42.48026 16.43052 38050 ft 483 kts 91°
2026-04-18 07:26 42.47349 16.52159 38047 ft 484 kts 91°
2026-04-18 07:26 42.46671 16.61201 38049 ft 484 kts 91°
2026-04-18 07:27 42.45980 16.70333 38043 ft 485 kts 91°
2026-04-18 07:27 42.45283 16.79435 38041 ft 486 kts 91°
2026-04-18 07:28 42.44580 16.88522 38063 ft 489 kts 91°
2026-04-18 07:28 42.44224 16.93102 38332 ft 489 kts 91°
2026-04-18 07:28 42.43866 16.97676 38711 ft 487 kts 92°
2026-04-18 07:29 42.43507 17.02238 38957 ft 486 kts 92°
2026-04-18 07:29 42.43146 17.06801 39019 ft 487 kts 92°
2026-04-18 07:29 42.42415 17.15944 39033 ft 487 kts 92°
2026-04-18 07:30 42.41678 17.25085 39030 ft 488 kts 92°
2026-04-18 07:30 42.40932 17.34244 39027 ft 488 kts 92°
2026-04-18 07:31 42.40176 17.43425 39024 ft 489 kts 92°
2026-04-18 07:31 42.39413 17.52615 39025 ft 489 kts 92°
2026-04-18 07:32 42.38650 17.61709 39020 ft 489 kts 93°
2026-04-18 07:32 42.37869 17.70934 39013 ft 490 kts 93°
2026-04-18 07:33 42.37088 17.80059 39005 ft 490 kts 93°
2026-04-18 07:33 42.36296 17.89233 39000 ft 490 kts 93°
2026-04-18 07:34 42.35494 17.98431 38991 ft 490 kts 93°
2026-04-18 07:34 42.34687 18.07604 38986 ft 491 kts 93°
2026-04-18 07:35 42.33871 18.16807 38983 ft 491 kts 94°
2026-04-18 07:35 42.33054 18.25921 38980 ft 491 kts 94°
2026-04-18 07:36 42.32223 18.35112 38979 ft 491 kts 94°
2026-04-18 07:36 42.31385 18.44291 38978 ft 491 kts 94°
2026-04-18 07:37 42.30539 18.53478 38979 ft 491 kts 94°
2026-04-18 07:37 42.29686 18.62654 38981 ft 491 kts 94°
2026-04-18 07:38 42.28830 18.71781 38981 ft 491 kts 94°
2026-04-18 07:38 42.27963 18.80940 38982 ft 491 kts 94°
2026-04-18 07:39 42.27088 18.90105 38976 ft 491 kts 95°
2026-04-18 07:39 42.26204 18.99266 38973 ft 491 kts 95°
2026-04-18 07:40 42.25312 19.08447 38979 ft 491 kts 95°
2026-04-18 07:40 42.24419 19.17552 38979 ft 492 kts 95°
2026-04-18 07:41 42.23160 19.26661 38975 ft 494 kts 102°
2026-04-18 07:41 42.21010 19.35556 38975 ft 497 kts 110°
2026-04-18 07:42 42.18004 19.43986 38977 ft 500 kts 118°
2026-04-18 07:42 42.14391 19.51934 38978 ft 500 kts 120°
2026-04-18 07:43 42.10694 19.59891 38978 ft 500 kts 120°
2026-04-18 07:43 42.06991 19.67878 38982 ft 500 kts 121°
2026-04-18 07:44 42.03320 19.75792 38982 ft 500 kts 121°
2026-04-18 07:44 41.99614 19.83765 38981 ft 501 kts 121°
2026-04-18 07:45 41.95895 19.91745 38985 ft 504 kts 121°
2026-04-18 07:45 41.92170 19.99717 38989 ft 506 kts 121°
2026-04-18 07:46 41.88388 20.07797 38992 ft 506 kts 121°
2026-04-18 07:46 41.84650 20.15754 38992 ft 505 kts 122°
2026-04-18 07:47 41.80885 20.23743 38996 ft 503 kts 122°
2026-04-18 07:47 41.77132 20.31684 38998 ft 502 kts 122°
2026-04-18 07:48 41.73384 20.39596 39003 ft 501 kts 122°
2026-04-18 07:48 41.69862 20.47646 39006 ft 501 kts 117°
2026-04-18 07:49 41.66989 20.56135 39010 ft 500 kts 110°
2026-04-18 07:49 41.64810 20.65058 39011 ft 500 kts 104°
2026-04-18 07:50 41.63161 20.74124 39014 ft 500 kts 102°
2026-04-18 07:50 41.61540 20.83175 39016 ft 500 kts 103°
2026-04-18 07:51 41.59882 20.92319 39015 ft 500 kts 103°
2026-04-18 07:51 41.58232 21.01350 39014 ft 501 kts 103°
2026-04-18 07:52 41.56567 21.10410 39012 ft 501 kts 103°
2026-04-18 07:52 41.54895 21.19457 39013 ft 501 kts 103°
2026-04-18 07:53 41.53210 21.28537 39013 ft 502 kts 103°
2026-04-18 07:53 41.51519 21.37603 39012 ft 502 kts 103°
2026-04-18 07:54 41.49817 21.46688 39013 ft 503 kts 103°
2026-04-18 07:54 41.48109 21.55759 39014 ft 503 kts 103°
2026-04-18 07:55 41.46404 21.64770 39012 ft 503 kts 103°
2026-04-18 07:55 41.44681 21.73838 39013 ft 503 kts 103°
2026-04-18 07:56 41.42943 21.82939 39015 ft 504 kts 103°
2026-04-18 07:56 41.41240 21.92013 38995 ft 503 kts 99°
2026-04-18 07:57 41.40553 22.01296 39005 ft 501 kts 92°
2026-04-18 07:57 41.40070 22.10527 39004 ft 500 kts 93°
2026-04-18 07:58 41.39258 22.24414 38994 ft 500 kts 94°
2026-04-18 07:59 41.38682 22.33653 38987 ft 500 kts 94°
2026-04-18 07:59 41.38090 22.42934 38970 ft 500 kts 94°
2026-04-18 08:00 41.37491 22.52177 38976 ft 500 kts 94°
2026-04-18 08:00 41.36884 22.61433 38970 ft 500 kts 94°
2026-04-18 08:01 41.36268 22.70708 38969 ft 501 kts 94°
2026-04-18 08:01 41.35752 22.78402 38968 ft 502 kts 94°
2026-04-18 08:02 41.35014 22.89253 38956 ft 503 kts 94°
2026-04-18 08:02 41.34480 22.97020 38960 ft 503 kts 94°
2026-04-18 08:03 41.33836 23.06291 38959 ft 503 kts 94°
2026-04-18 08:03 41.33181 23.15607 38952 ft 503 kts 94°
2026-04-18 08:04 41.32520 23.24906 38958 ft 503 kts 94°
2026-04-18 08:04 41.31851 23.34206 38957 ft 503 kts 95°
2026-04-18 08:05 41.31178 23.43453 38955 ft 503 kts 95°
2026-04-18 08:05 41.30495 23.52733 38956 ft 503 kts 95°
2026-04-18 08:06 41.29805 23.62003 38961 ft 504 kts 95°
2026-04-18 08:06 41.29106 23.71299 38954 ft 504 kts 95°
2026-04-18 08:07 41.28400 23.80584 38958 ft 504 kts 95°
2026-04-18 08:07 41.27690 23.89808 38956 ft 504 kts 95°
2026-04-18 08:08 41.26969 23.99097 38954 ft 504 kts 95°
2026-04-18 08:08 41.26239 24.08389 38953 ft 504 kts 95°
2026-04-18 08:09 41.25503 24.17659 38948 ft 504 kts 95°
2026-04-18 08:09 41.24764 24.26869 38955 ft 504 kts 95°
2026-04-18 08:10 41.24012 24.36155 38951 ft 503 kts 95°
2026-04-18 08:10 41.23253 24.45434 38950 ft 503 kts 96°
2026-04-18 08:11 41.22490 24.54678 38945 ft 503 kts 96°
2026-04-18 08:11 41.21717 24.63945 38950 ft 502 kts 96°
2026-04-18 08:12 41.20945 24.73116 38950 ft 502 kts 96°
2026-04-18 08:12 41.20160 24.82347 38952 ft 501 kts 96°
2026-04-18 08:13 41.19370 24.91558 38951 ft 500 kts 96°
2026-04-18 08:13 41.18576 25.00712 38950 ft 500 kts 96°
2026-04-18 08:14 41.17769 25.09920 38949 ft 499 kts 96°
2026-04-18 08:14 41.16960 25.19079 38951 ft 500 kts 96°
2026-04-18 08:15 41.16146 25.28212 38948 ft 500 kts 97°
2026-04-18 08:15 41.15320 25.37398 38946 ft 501 kts 97°
2026-04-18 08:15 41.14904 25.41992 38733 ft 500 kts 97°
2026-04-18 08:16 41.14487 25.46574 38138 ft 500 kts 97°
2026-04-18 08:16 41.14067 25.51179 37279 ft 503 kts 97°
2026-04-18 08:16 41.13643 25.55814 36461 ft 507 kts 97°
2026-04-18 08:16 41.13217 25.60448 35712 ft 509 kts 98°
2026-04-18 08:17 41.12780 25.65164 34973 ft 511 kts 98°
2026-04-18 08:17 41.12343 25.69874 34253 ft 513 kts 98°
2026-04-18 08:17 41.11900 25.74615 33433 ft 515 kts 98°
2026-04-18 08:17 41.11453 25.79360 32599 ft 516 kts 98°
2026-04-18 08:18 41.11006 25.84097 31787 ft 518 kts 98°
2026-04-18 08:18 41.10555 25.88844 31048 ft 517 kts 98°
2026-04-18 08:18 41.10105 25.93579 30373 ft 516 kts 99°
2026-04-18 08:18 41.09651 25.98328 29656 ft 514 kts 99°
2026-04-18 08:19 41.09198 26.03027 28930 ft 511 kts 99°
2026-04-18 08:19 41.08746 26.07699 28215 ft 509 kts 98°
2026-04-18 08:19 41.08294 26.12342 27604 ft 504 kts 98°
2026-04-18 08:19 41.07844 26.16970 27234 ft 495 kts 98°
2026-04-18 08:20 41.07403 26.21482 26736 ft 491 kts 98°
2026-04-18 08:20 41.06963 26.25956 26262 ft 486 kts 98°
2026-04-18 08:20 41.06532 26.30325 25781 ft 481 kts 98°
2026-04-18 08:20 41.06096 26.34719 25291 ft 477 kts 98°
2026-04-18 08:21 41.05665 26.39057 24829 ft 472 kts 98°
2026-04-18 08:21 41.05235 26.43358 24320 ft 469 kts 98°
2026-04-18 08:21 41.04804 26.47648 23867 ft 464 kts 98°
2026-04-18 08:21 41.04377 26.51876 23404 ft 459 kts 98°
2026-04-18 08:22 41.03959 26.56062 22924 ft 454 kts 97°
2026-04-18 08:22 41.03663 26.60202 22479 ft 449 kts 94°
2026-04-18 08:22 41.03539 26.64272 22071 ft 443 kts 90°
2026-04-18 08:22 41.03573 26.68384 21653 ft 438 kts 88°
2026-04-18 08:23 41.03655 26.72391 21254 ft 433 kts 88°
2026-04-18 08:23 41.03741 26.76360 20853 ft 428 kts 88°
2026-04-18 08:23 41.03820 26.80260 20449 ft 424 kts 88°
2026-04-18 08:23 41.03895 26.84167 20070 ft 419 kts 87°
2026-04-18 08:24 41.04192 26.87949 19938 ft 403 kts 77°
2026-04-18 08:24 41.04967 26.91437 19882 ft 394 kts 66°
2026-04-18 08:24 41.06205 26.94738 19408 ft 406 kts 57°
2026-04-18 08:24 41.07686 26.97957 18718 ft 410 kts 56°
2026-04-18 08:25 41.09207 27.01173 17922 ft 415 kts 56°
2026-04-18 08:25 41.10725 27.04417 17364 ft 412 kts 56°
2026-04-18 08:25 41.12221 27.07655 16875 ft 407 kts 56°
2026-04-18 08:25 41.13676 27.10829 16433 ft 402 kts 57°
2026-04-18 08:26 41.15116 27.13979 16011 ft 396 kts 57°
2026-04-18 08:26 41.16312 27.17240 15562 ft 394 kts 71°
2026-04-18 08:26 41.16622 27.20845 15163 ft 394 kts 91°
2026-04-18 08:26 41.16006 27.24383 14746 ft 394 kts 111°
2026-04-18 08:27 41.14548 27.27444 14331 ft 394 kts 130°
2026-04-18 08:27 41.12408 27.29728 13924 ft 393 kts 147°
2026-04-18 08:27 41.10068 27.31557 13495 ft 390 kts 148°
2026-04-18 08:27 41.07717 27.33362 13059 ft 387 kts 148°
2026-04-18 08:28 41.05432 27.35137 12649 ft 383 kts 148°
2026-04-18 08:28 41.03158 27.36925 12282 ft 376 kts 147°
2026-04-18 08:28 41.00937 27.38681 12192 ft 361 kts 147°
2026-04-18 08:28 40.98864 27.40507 12000 ft 364 kts 135°
2026-04-18 08:29 40.97401 27.43248 11739 ft 375 kts 109°
2026-04-18 08:29 40.96954 27.46600 11470 ft 369 kts 84°
2026-04-18 08:29 40.97635 27.49817 11234 ft 362 kts 59°
2026-04-18 08:29 40.99101 27.52503 10993 ft 359 kts 50°
2026-04-18 08:30 41.00632 27.55129 10753 ft 357 kts 51°
2026-04-18 08:30 41.02099 27.57758 10452 ft 351 kts 52°
2026-04-18 08:30 41.03508 27.60360 10145 ft 343 kts 53°
2026-04-18 08:30 41.04866 27.62913 9833 ft 335 kts 53°
2026-04-18 08:31 41.06176 27.65407 9674 ft 323 kts 53°
2026-04-18 08:31 41.07426 27.67804 9528 ft 310 kts 53°
2026-04-18 08:31 41.08634 27.70130 9389 ft 298 kts 53°
2026-04-18 08:31 41.09789 27.72361 9238 ft 287 kts 53°
2026-04-18 08:32 41.10898 27.74504 9101 ft 277 kts 53°
2026-04-18 08:32 41.11965 27.76571 8954 ft 267 kts 53°
2026-04-18 08:32 41.13014 27.78601 8943 ft 267 kts 53°
2026-04-18 08:32 41.14068 27.80643 8936 ft 268 kts 53°
2026-04-18 08:33 41.15106 27.82656 8933 ft 267 kts 53°
2026-04-18 08:33 41.16156 27.84694 8933 ft 267 kts 53°
2026-04-18 08:33 41.17206 27.86734 8932 ft 267 kts 53°
2026-04-18 08:33 41.18257 27.88776 8933 ft 267 kts 53°
2026-04-18 08:34 41.19305 27.90817 8931 ft 267 kts 53°
2026-04-18 08:34 41.20355 27.92860 8933 ft 267 kts 53°
2026-04-18 08:34 41.21406 27.94908 8931 ft 267 kts 53°
2026-04-18 08:34 41.22455 27.96954 8931 ft 267 kts 53°
2026-04-18 08:35 41.23505 27.99002 8926 ft 267 kts 53°
2026-04-18 08:35 41.24551 28.01046 8931 ft 267 kts 53°
2026-04-18 08:35 41.25578 28.03106 8926 ft 268 kts 59°
2026-04-18 08:35 41.26134 28.05487 8923 ft 275 kts 82°
2026-04-18 08:36 41.25940 28.08037 8925 ft 283 kts 104°
2026-04-18 08:36 41.24992 28.10357 8928 ft 292 kts 127°
2026-04-18 08:36 41.23457 28.12166 8938 ft 296 kts 139°
2026-04-18 08:36 41.21814 28.13822 8928 ft 296 kts 139°
2026-04-18 08:37 41.20189 28.15452 8928 ft 296 kts 139°
2026-04-18 08:37 41.18555 28.17111 8922 ft 295 kts 139°
2026-04-18 08:37 41.16926 28.18784 8703 ft 296 kts 138°
2026-04-18 08:37 41.15295 28.20463 8362 ft 295 kts 138°
2026-04-18 08:38 41.13683 28.22124 8053 ft 292 kts 138°
2026-04-18 08:38 41.12083 28.23769 7738 ft 288 kts 137°
2026-04-18 08:38 41.10509 28.25389 7442 ft 285 kts 137°
2026-04-18 08:38 41.08953 28.26990 7158 ft 281 kts 137°
2026-04-18 08:39 41.07415 28.28573 6847 ft 278 kts 137°
2026-04-18 08:39 41.05902 28.30126 6568 ft 271 kts 137°
2026-04-18 08:39 41.04408 28.31657 6312 ft 269 kts 137°
2026-04-18 08:39 41.02928 28.33174 6017 ft 268 kts 136°
2026-04-18 08:40 41.01454 28.34686 5734 ft 267 kts 136°
2026-04-18 08:40 40.99991 28.36187 5454 ft 265 kts 136°
2026-04-18 08:40 40.98539 28.37689 5158 ft 263 kts 133°
2026-04-18 08:40 40.97290 28.39436 4949 ft 260 kts 120°
2026-04-18 08:41 40.96357 28.41369 4910 ft 244 kts 114°
2026-04-18 08:41 40.95541 28.43265 4903 ft 232 kts 112°
2026-04-18 08:41 40.94756 28.45128 4916 ft 231 kts 112°
2026-04-18 08:41 40.93970 28.46988 4914 ft 231 kts 112°
2026-04-18 08:42 40.93177 28.48846 4917 ft 232 kts 112°
2026-04-18 08:42 40.92378 28.50704 4918 ft 232 kts 112°
2026-04-18 08:42 40.91577 28.52564 4916 ft 232 kts 112°
2026-04-18 08:42 40.90775 28.54420 4920 ft 232 kts 112°
2026-04-18 08:43 40.89973 28.56273 4924 ft 232 kts 112°
2026-04-18 08:43 40.89392 28.58210 4913 ft 222 kts 91°
2026-04-18 08:43 40.89478 28.60199 4923 ft 214 kts 69°
2026-04-18 08:43 40.89941 28.62059 4931 ft 212 kts 66°
2026-04-18 08:44 40.90429 28.63903 4926 ft 212 kts 66°
2026-04-18 08:44 40.90915 28.65747 4928 ft 212 kts 66°
2026-04-18 08:44 40.91418 28.67583 4926 ft 210 kts 59°
2026-04-18 08:44 40.92255 28.69141 4929 ft 208 kts 42°
2026-04-18 08:45 40.93421 28.70248 4936 ft 204 kts 30°
2026-04-18 08:45 40.94629 28.71148 4927 ft 196 kts 30°
2026-04-18 08:45 40.95811 28.72014 4928 ft 196 kts 30°
2026-04-18 08:45 40.97030 28.72813 4931 ft 196 kts 20°
2026-04-18 08:46 40.98362 28.73231 4930 ft 198 kts
2026-04-18 08:46 40.99744 28.73289 4935 ft 200 kts